KC6NLX-13 Weather Reports


time (UTC)temp
F
wind
direction
speed
knots
gust
knots
rain 1hr
in
rain 24hr
in
rain mn
in
humidity
%
barometer
mb
20260509002903 56 139 0.0 1.7 0.02 0.00 0.02 86 1009.5
20260509002803 56 139 0.0 1.7 0.02 0.00 0.02 86 1009.5
20260509002704 56 139 0.0 1.7 0.02 0.00 0.02 86 1009.5
20260509002603 57 139 0.0 2.6 0.02 0.00 0.02 86 1009.5
20260509002503 56 139 0.0 2.6 0.02 0.00 0.02 86 1009.5
20260509002403 57 139 0.0 2.6 0.02 0.00 0.02 86 1009.5
20260509002306 57 139 0.0 2.6 0.02 0.00 0.02 86 1009.9
20260509002203 57 135 0.9 3.5 0.02 0.00 0.02 86 1009.9
20260509002103 57 138 0.9 4.3 0.02 0.00 0.02 86 1009.9
20260509002003 57 136 1.7 4.3 0.02 0.00 0.02 86 1009.9
20260509001903 57 158 0.9 4.3 0.02 0.00 0.02 86 1009.9
20260509001803 57 131 0.9 4.3 0.02 0.00 0.02 85 1009.9
20260509001703 57 111 1.7 4.3 0.02 0.00 0.02 85 1009.9
20260509001603 57 176 0.9 4.3 0.02 0.00 0.02 85 1009.9
20260509001503 56 214 1.7 4.3 0.02 0.00 0.02 85 1009.9
20260509001403 56 170 1.7 4.3 0.02 0.00 0.02 85 1009.9
20260509001303 56 190 2.6 4.3 0.02 0.00 0.02 86 1009.9
20260509001203 56 194 3.5 4.3 0.02 0.00 0.02 85 1009.9
20260509001103 57 156 1.7 3.5 0.02 0.00 0.02 85 1009.9
20260509001003 57 195 2.6 3.5 0.02 0.00 0.02 85 1009.9
20260509000903 57 239 0.9 5.2 0.02 0.00 0.02 85 1009.9
20260509000803 57 193 1.7 6.1 0.01 0.00 0.01 85 1009.9
20260509000703 57 232 0.0 6.1 0.01 0.00 0.01 84 1010.2
20260509000603 57 259 0.9 6.1 0.01 0.00 0.01 84 1010.2
20260509000503 57 287 0.9 6.1 0.01 0.00 0.01 85 1010.2
20260509000403 57 280 1.7 6.1 0.01 0.00 0.01 85 1010.2
20260509000303 57 249 1.7 6.1 0.01 0.00 0.01 85 1010.2
20260509000204 57 195 0.0 6.1 0.01 0.00 0.01 85 1010.2
20260509000103 57 214 1.7 6.1 0.01 0.00 0.01 85 1010.2
20260509000003 57 197 2.6 6.1 0.01 0.00 0.01 85 1010.2
20260508235903 57 203 2.6 6.1 0.01 0.00 0.01 85 1010.2
20260508235803 57 224 1.7 6.1 0.01 0.00 0.01 84 1010.2
20260508235703 57 284 0.0 6.1 0.01 0.00 0.01 84 1010.2
20260508235603 57 263 2.6 6.1 0.01 0.00 0.01 84 1010.2
20260508235503 57 228 0.9 6.1 0.01 0.00 0.01 84 1010.2
20260508235403 57 264 1.7 6.1 0.01 0.00 0.01 84 1010.5
20260508235306 57 233 3.5 6.1 0.01 0.00 0.01 84 1010.5
20260508235203 57 280 2.6 6.1 0.01 0.00 0.01 84 1010.5
20260508235103 57 301 2.6 6.1 0.01 0.00 0.01 83 1010.2
20260508235003 57 309 1.7 6.1 0.01 0.00 0.01 83 1010.2
20260508234903 57 257 0.9 4.3 0.01 0.00 0.01 83 1010.2
20260508234803 57 263 0.9 4.3 0.01 0.00 0.01 83 1010.2
20260508234703 58 271 2.6 4.3 0.01 0.00 0.01 83 1010.2
20260508234603 58 284 0.0 3.5 0.01 0.00 0.01 83 1010.2
20260508234503 58 198 0.9 3.5 0.01 0.00 0.01 83 1010.2
20260508234403 58 233 0.0 4.3 0.01 0.00 0.01 83 1009.9
20260508234303 58 228 0.0 4.3 0.01 0.00 0.01 83 1009.9
20260508234203 58 232 1.7 4.3 0.01 0.00 0.01 82 1009.9
20260508234103 58 281 1.7 4.3 0.01 0.00 0.01 82 1009.9
20260508234003 58 242 0.0 4.3 0.00 0.00 0.00 82 1009.9
20260508233903 58 242 0.9 4.3 0.00 0.00 0.00 82 1009.9
20260508233803 58 239 0.0 4.3 0.00 0.00 0.00 82 1009.9
20260508233703 58 239 0.0 6.1 0.00 0.00 0.00 82 1009.9
20260508233603 58 239 0.9 6.1 0.00 0.00 0.00 82 1009.9
20260508233503 58 319 2.6 6.1 0.00 0.00 0.00 81 1009.9
20260508233403 58 325 2.6 6.1 0.00 0.00 0.00 81 1009.9
20260508233303 58 301 0.9 6.1 0.00 0.00 0.00 81 1009.9
20260508233203 58 302 0.0 6.1 0.00 0.00 0.00 81 1009.9
20260508233103 58 302 0.0 7.0 0.00 0.00 0.00 81 1009.9
20260508233003 58 302 1.7 7.0 0.00 0.00 0.00 81 1009.9
20260508232903 58 284 2.6 7.0 0.00 0.00 0.00 81 1009.9
20260508232803 58 322 3.5 7.0 0.00 0.00 0.00 81 1009.9
20260508232703 58 302 1.7 7.0 0.00 0.00 0.00 80 1009.9
20260508232603 58 294 1.7 7.0 0.00 0.00 0.00 80 1009.9
20260508232503 58 298 0.9 7.0 0.00 0.00 0.00 80 1009.9
20260508232403 58 262 1.7 7.0 0.00 0.00 0.00 80 1009.9
20260508232306 58 343 2.6 7.0 0.00 0.00 0.00 80 1009.9
20260508232203 58 294 3.5 7.0 0.00 0.00 0.00 79 1009.9
20260508232103 58 288 2.6 7.8 0.00 0.00 0.00 79 1009.9
20260508232003 58 271 2.6 7.8 0.00 0.00 0.00 80 1009.9
20260508231903 58 359 3.5 7.8 0.00 0.00 0.00 78 1009.9
20260508231803 59 330 0.9 7.8 0.00 0.00 0.00 78 1009.5
20260508231703 58 8 1.7 7.8 0.00 0.00 0.00 78 1009.5
20260508231603 58 359 2.6 7.8 0.00 0.00 0.00 78 1009.5
20260508231503 58 308 4.3 7.8 0.00 0.00 0.00 78 1009.5
20260508231403 58 332 4.3 7.8 0.00 0.00 0.00 78 1009.5
20260508231303 59 330 3.5 7.8 0.00 0.00 0.00 77 1009.5
20260508231203 58 294 5.2 7.8 0.00 0.00 0.00 77 1009.5
20260508231103 59 304 2.6 8.7 0.00 0.00 0.00 76 1009.5
20260508231003 59 4 5.2 8.7 0.00 0.00 0.00 76 1009.5
20260508230903 59 332 2.6 8.7 0.00 0.00 0.00 76 1009.5
20260508230803 59 322 2.6 8.7 0.00 0.00 0.00 76 1009.5
20260508230703 59 326 3.5 8.7 0.00 0.00 0.00 76 1009.5
20260508230603 58 328 4.3 8.7 0.00 0.00 0.00 76 1009.2
20260508230503 58 335 5.2 8.7 0.00 0.00 0.00 75 1009.5
20260508230403 59 343 4.3 8.7 0.00 0.00 0.00 74 1009.5
20260508230303 59 353 2.6 8.7 0.00 0.00 0.00 74 1009.5
20260508230203 59 301 5.2 8.7 0.00 0.00 0.00 74 1009.5
20260508230103 59 242 4.3 7.8 0.00 0.00 0.00 73 1009.5
20260508230003 59 325 4.3 7.8 0.00 0.00 0.00 73 1009.5
20260508225903 59 333 4.3 7.8 0.00 0.00 0.00 72 1009.5
20260508225803 59 353 5.2 7.8 0.00 0.00 0.00 72 1009.5
20260508225703 60 326 4.3 7.8 0.00 0.00 0.00 71 1009.5
20260508225603 59 325 3.5 7.8 0.00 0.00 0.00 70 1009.5
20260508225503 60 326 4.3 7.8 0.00 0.00 0.00 68 1009.5
20260508225403 60 315 3.5 7.8 0.00 0.00 0.00 67 1009.5
20260508225306 60 298 2.6 7.8 0.00 0.00 0.00 64 1009.5
20260508225203 60 300 4.3 7.8 0.00 0.00 0.00 63 1009.5
20260508225103 60 325 1.7 3.5 0.00 0.00 0.00 62 1009.5
20260508225003 60 287 0.9 1.7 0.00 0.00 0.00 63 1009.5
20260508224903 60 236 0.0 2.6 0.00 0.00 0.00 62 1009.5
20260508224803 60 226 0.9 2.6 0.00 0.00 0.00 62 1009.5
20260508224703 61 177 0.0 2.6 0.00 0.00 0.00 62 1009.5
20260508224603 60 177 0.0 2.6 0.00 0.00 0.00 62 1009.5
20260508224503 61 177 0.0 2.6 0.00 0.00 0.00 62 1009.2
20260508224403 61 177 0.0 4.3 0.00 0.00 0.00 62 1009.2
20260508224303 61 177 0.0 4.3 0.00 0.00 0.00 62 1009.5
20260508224203 61 177 0.0 4.3 0.00 0.00 0.00 62 1009.5
20260508224103 60 177 0.0 4.3 0.00 0.00 0.00 62 1009.5
20260508224003 60 233 0.9 4.3 0.00 0.00 0.00 62 1009.5
20260508223903 61 214 0.0 5.2 0.00 0.00 0.00 62 1009.5
20260508223803 61 214 0.0 5.2 0.00 0.00 0.00 62 1009.5
20260508223703 61 214 0.0 5.2 0.00 0.00 0.00 62 1009.5
20260508223603 61 214 0.9 7.0 0.00 0.00 0.00 62 1009.5
20260508223503 61 308 1.7 7.0 0.00 0.00 0.00 62 1009.5
20260508223403 61 205 1.7 7.0 0.00 0.00 0.00 62 1009.5
20260508223303 61 274 0.0 7.0 0.00 0.00 0.00 62 1009.5
20260508223203 61 274 0.0 7.0 0.00 0.00 0.00 62 1009.5
20260508223103 61 274 0.0 7.8 0.00 0.00 0.00 62 1009.5
20260508223003 61 297 2.6 7.8 0.00 0.00 0.00 61 1009.5
20260508222903 61 267 0.0 7.8 0.00 0.00 0.00 62 1009.5
20260508222803 61 267 1.7 7.8 0.00 0.00 0.00 61 1009.5
20260508222703 61 285 1.7 7.8 0.00 0.00 0.00 61 1009.5
20260508222603 61 269 0.9 7.8 0.00 0.00 0.00 61 1009.5
20260508222503 61 298 2.6 7.8 0.00 0.00 0.00 61 1009.5
20260508222403 61 267 2.6 7.8 0.00 0.00 0.00 61 1009.5
20260508222306 61 240 1.7 7.8 0.00 0.00 0.00 61 1009.5
20260508222203 61 201 4.3 7.8 0.00 0.00 0.00 60 1009.5
20260508222103 61 248 1.7 7.8 0.00 0.00 0.00 60 1009.5
20260508222003 61 245 0.9 7.8 0.00 0.00 0.00 60 1009.5
20260508221903 61 308 2.6 7.8 0.00 0.00 0.00 60 1009.5
20260508221803 62 245 0.9 6.1 0.00 0.00 0.00 60 1009.5
20260508221703 62 304 0.9 6.1 0.00 0.00 0.00 59 1009.5
20260508221603 62 307 1.7 6.1 0.00 0.00 0.00 59 1009.5
20260508221503 62 285 2.6 7.0 0.00 0.00 0.00 59 1009.5
20260508221403 62 300 1.7 7.0 0.00 0.00 0.00 58 1009.5
20260508221303 62 276 2.6 7.0 0.00 0.00 0.00 58 1009.9
20260508221203 62 273 2.6 7.8 0.00 0.00 0.00 57 1009.9
20260508221103 62 256 1.7 7.8 0.00 0.00 0.00 57 1009.9
20260508221003 62 200 0.9 7.8 0.00 0.00 0.00 56 1009.9
20260508220903 62 203 3.5 7.8 0.00 0.00 0.00 56 1009.9
20260508220803 62 221 1.7 8.7 0.00 0.00 0.00 55 1009.9
20260508220703 62 229 2.6 8.7 0.00 0.00 0.00 55 1009.5
20260508220603 62 246 3.5 8.7 0.00 0.00 0.00 55 1009.9
20260508220503 63 259 0.9 8.7 0.00 0.00 0.00 55 1009.5
20260508220403 63 248 1.7 8.7 0.00 0.00 0.00 54 1009.5
20260508220303 63 294 2.6 8.7 0.00 0.00 0.00 54 1009.5
20260508220203 63 270 1.7 8.7 0.00 0.00 0.00 54 1009.5
20260508220103 63 252 1.7 8.7 0.00 0.00 0.00 54 1009.5
20260508220003 63 260 2.6 8.7 0.00 0.00 0.00 54 1009.5
20260508215903 63 287 3.5 8.7 0.00 0.00 0.00 53 1009.5
20260508215803 63 283 4.3 8.7 0.00 0.00 0.00 53 1009.5
20260508215703 63 252 4.3 8.7 0.00 0.00 0.00 53 1009.5
20260508215603 63 269 3.5 8.7 0.00 0.00 0.00 53 1009.5
20260508215503 63 243 2.6 9.6 0.00 0.00 0.00 53 1009.5
20260508215403 63 263 1.7 10.4 0.00 0.00 0.00 53 1009.5
20260508215306 63 235 1.7 10.4 0.00 0.00 0.00 53 1009.5
20260508215203 63 229 1.7 10.4 0.00 0.00 0.00 53 1009.5
20260508215103 63 301 2.6 10.4 0.00 0.00 0.00 53 1009.5
20260508215003 63 284 1.7 10.4 0.00 0.00 0.00 53 1009.5
20260508214903 63 285 3.5 11.3 0.00 0.00 0.00 52 1009.2
20260508214803 63 267 2.6 11.3 0.00 0.00 0.00 52 1009.2
20260508214703 63 222 2.6 11.3 0.00 0.00 0.00 52 1009.2
20260508214603 63 249 3.5 11.3 0.00 0.00 0.00 51 1009.5
20260508214503 63 319 5.2 13.0 0.00 0.00 0.00 52 1009.5
20260508214403 63 329 3.5 13.0 0.00 0.00 0.00 51 1009.5
20260508214303 63 276 5.2 13.0 0.00 0.00 0.00 51 1009.5
20260508214203 64 312 3.5 13.0 0.00 0.00 0.00 51 1009.5
20260508214103 64 278 3.5 13.0 0.00 0.00 0.00 51 1009.5
20260508214003 64 263 5.2 13.0 0.00 0.00 0.00 50 1009.5
20260508213903 64 255 5.2 13.0 0.00 0.00 0.00 50 1009.5
20260508213803 64 283 5.2 13.0 0.00 0.00 0.00 49 1009.5
20260508213703 64 225 4.3 14.8 0.00 0.00 0.00 48 1009.5
20260508213603 64 229 5.2 14.8 0.00 0.00 0.00 48 1009.5
20260508213503 64 215 4.3 14.8 0.00 0.00 0.00 48 1009.2
20260508213403 64 249 2.6 14.8 0.00 0.00 0.00 48 1009.5
20260508213303 64 186 1.7 14.8 0.00 0.00 0.00 48 1009.5
20260508213203 64 177 2.6 14.8 0.00 0.00 0.00 48 1009.5
20260508213103 64 288 1.7 14.8 0.00 0.00 0.00 47 1009.5
20260508213003 64 276 4.3 14.8 0.00 0.00 0.00 47 1009.5
20260508212903 64 294 4.3 14.8 0.00 0.00 0.00 47 1009.5
20260508212803 64 323 5.2 14.8 0.00 0.00 0.00 47 1009.5
20260508212703 64 198 5.2 10.4 0.00 0.00 0.00 47 1009.5
20260508212603 64 219 5.2 10.4 0.00 0.00 0.00 47 1009.5
20260508212503 64 271 4.3 10.4 0.00 0.00 0.00 47 1009.5
20260508212403 64 266 5.2 10.4 0.00 0.00 0.00 48 1009.5
20260508212306 65 314 3.5 10.4 0.00 0.00 0.00 49 1009.5
20260508212203 65 284 3.5 10.4 0.00 0.00 0.00 49 1009.5
20260508212103 65 149 2.6 10.4 0.00 0.00 0.00 48 1009.5
20260508212003 65 181 4.3 10.4 0.00 0.00 0.00 48 1009.5
20260508211903 65 24 4.3 12.2 0.00 0.00 0.00 49 1009.5
20260508211803 65 8 4.3 12.2 0.00 0.00 0.00 48 1009.5
20260508211703 65 253 3.5 12.2 0.00 0.00 0.00 49 1009.5
20260508211603 65 194 0.9 12.2 0.00 0.00 0.00 49 1009.5
20260508211503 64 322 2.6 12.2 0.00 0.00 0.00 49 1009.5
20260508211403 65 184 3.5 12.2 0.00 0.00 0.00 49 1009.5
20260508211303 64 195 4.3 12.2 0.00 0.00 0.00 48 1009.5
20260508211203 64 231 5.2 12.2 0.00 0.00 0.00 48 1009.5
20260508211103 64 210 5.2 12.2 0.00 0.00 0.00 48 1009.5
20260508211003 64 242 6.1 12.2 0.00 0.00 0.00 48 1009.5
20260508210903 64 214 6.1 10.4 0.00 0.00 0.00 48 1009.5
20260508210803 64 187 6.1 10.4 0.00 0.00 0.00 48 1009.5
20260508210703 64 203 5.2 10.4 0.00 0.00 0.00 48 1009.5
20260508210603 64 158 7.0 10.4 0.00 0.00 0.00 48 1009.5
20260508210503 64 233 4.3 9.6 0.00 0.00 0.00 48 1009.5
20260508210403 64 177 1.7 9.6 0.00 0.00 0.00 49 1009.5
20260508210303 65 228 1.7 10.4 0.00 0.00 0.00 49 1009.5
20260508210203 64 218 2.6 12.2 0.00 0.00 0.00 49 1009.5
20260508210103 64 243 5.2 12.2 0.00 0.00 0.00 49 1009.2
20260508210003 64 165 4.3 12.2 0.00 0.00 0.00 49 1009.5
20260508205903 64 197 7.0 12.2 0.00 0.00 0.00 48 1009.5
20260508205803 64 205 4.3 12.2 0.00 0.00 0.00 48 1009.5
20260508205703 64 149 3.5 12.2 0.00 0.00 0.00 49 1009.5
20260508205603 64 278 5.2 12.2 0.00 0.00 0.00 48 1009.5
20260508205503 64 186 4.3 12.2 0.00 0.00 0.00 49 1009.5
20260508205403 64 224 6.1 12.2 0.00 0.00 0.00 48 1009.5
20260508205306 64 214 7.8 12.2 0.00 0.00 0.00 48 1009.5
20260508205203 64 211 5.2 12.2 0.00 0.00 0.00 48 1009.5
20260508205103 64 204 3.5 12.2 0.00 0.00 0.00 48 1009.5
20260508205003 64 307 7.8 12.2 0.00 0.00 0.00 48 1009.5
20260508204903 64 218 6.1 13.0 0.00 0.00 0.00 48 1009.5
20260508204803 64 238 6.1 13.0 0.00 0.00 0.00 48 1009.5
20260508204703 64 156 5.2 13.0 0.00 0.00 0.00 48 1009.5
20260508204603 64 240 7.8 13.0 0.00 0.00 0.00 48 1009.5
20260508204503 64 218 6.1 13.0 0.00 0.00 0.00 47 1009.5
20260508204403 64 193 7.0 13.0 0.00 0.00 0.00 47 1009.5
20260508204303 64 205 6.1 13.0 0.00 0.00 0.00 47 1009.5
20260508204203 64 257 7.0 13.0 0.00 0.00 0.00 47 1009.5
20260508204103 64 193 7.0 13.0 0.00 0.00 0.00 47 1009.5
20260508204003 64 211 7.0 14.8 0.00 0.00 0.00 47 1009.5
20260508203904 64 208 7.0 14.8 0.00 0.00 0.00 46 1009.5
20260508203803 64 195 7.0 14.8 0.00 0.00 0.00 47 1009.5
20260508203703 65 195 6.1 14.8 0.00 0.00 0.00 47 1009.5
20260508203603 64 194 7.0 14.8 0.00 0.00 0.00 46 1009.5
20260508203503 65 208 6.1 14.8 0.00 0.00 0.00 46 1009.5
20260508203403 64 222 7.0 14.8 0.00 0.00 0.00 46 1009.5
20260508203303 65 205 7.8 14.8 0.00 0.00 0.00 46 1009.5
20260508203203 65 176 7.0 14.8 0.00 0.00 0.00 46 1009.5
20260508203103 64 243 7.8 14.8 0.00 0.00 0.00 46 1009.5
20260508203003 65 222 9.6 14.8 0.00 0.00 0.00 45 1009.5
20260508202903 65 208 7.0 14.8 0.00 0.00 0.00 46 1009.5
20260508202803 65 229 7.0 14.8 0.00 0.00 0.00 46 1009.5
20260508202703 65 307 7.0 13.9 0.00 0.00 0.00 45 1009.5
20260508202603 65 281 6.1 13.9 0.00 0.00 0.00 46 1009.5
20260508202503 65 204 6.1 13.9 0.00 0.00 0.00 46 1009.5
20260508202403 65 197 5.2 11.3 0.00 0.00 0.00 46 1009.5
20260508202306 65 215 7.0 11.3 0.00 0.00 0.00 46 1009.5
20260508202203 65 262 6.1 11.3 0.00 0.00 0.00 46 1009.5
20260508202103 65 183 6.1 11.3 0.00 0.00 0.00 46 1009.5
20260508202003 65 215 6.1 11.3 0.00 0.00 0.00 45 1009.2
20260508201903 65 217 7.0 12.2 0.00 0.00 0.00 45 1009.2
20260508201803 65 212 5.2 12.2 0.00 0.00 0.00 45 1009.2
20260508201703 65 188 7.0 12.2 0.00 0.00 0.00 44 1009.5
20260508201603 66 195 5.2 12.2 0.00 0.00 0.00 45 1009.5
20260508201503 65 255 6.1 13.9 0.00 0.00 0.00 44 1009.2
20260508201403 65 181 5.2 13.9 0.00 0.00 0.00 46 1009.2
20260508201303 65 226 6.1 13.9 0.00 0.00 0.00 45 1009.5
20260508201203 65 233 6.1 13.9 0.00 0.00 0.00 45 1009.5
20260508201103 66 170 5.2 13.9 0.00 0.00 0.00 45 1009.5
20260508201003 65 231 7.0 13.9 0.00 0.00 0.00 45 1009.5
20260508200903 65 160 7.0 13.9 0.00 0.00 0.00 45 1009.5
20260508200803 66 214 4.3 14.8 0.00 0.00 0.00 45 1009.5
20260508200703 65 256 6.1 16.5 0.00 0.00 0.00 45 1009.5
20260508200603 65 174 5.2 16.5 0.00 0.00 0.00 45 1009.5
20260508200503 65 255 6.1 16.5 0.00 0.00 0.00 45 1009.5
20260508200403 66 191 6.1 16.5 0.00 0.00 0.00 46 1009.5
20260508200303 65 274 6.1 16.5 0.00 0.00 0.00 45 1009.5
20260508200203 65 280 7.8 16.5 0.00 0.00 0.00 45 1009.5
20260508200103 65 181 7.8 16.5 0.00 0.00 0.00 44 1009.5
20260508200003 65 267 7.0 16.5 0.00 0.00 0.00 45 1009.5
20260508195903 65 186 7.8 16.5 0.00 0.00 0.00 45 1009.5
20260508195803 65 186 7.8 16.5 0.00 0.00 0.00 44 1009.5
20260508195703 65 267 7.0 16.5 0.00 0.00 0.00 44 1009.5
20260508195603 66 198 5.2 16.5 0.00 0.00 0.00 45 1009.5
20260508195503 65 228 5.2 16.5 0.00 0.00 0.00 45 1009.5
20260508195403 65 232 8.7 16.5 0.00 0.00 0.00 43 1009.5
20260508195306 65 201 9.6 16.5 0.00 0.00 0.00 44 1009.5
20260508195203 66 194 7.8 16.5 0.00 0.00 0.00 44 1009.5
20260508195103 66 179 7.0 14.8 0.00 0.00 0.00 44 1009.5
20260508195003 66 211 6.1 15.6 0.00 0.00 0.00 45 1009.5
20260508194903 66 211 6.1 15.6 0.00 0.00 0.00 45 1009.5
20260508194803 66 224 7.0 15.6 0.00 0.00 0.00 45 1009.9
20260508194703 66 170 7.0 15.6 0.00 0.00 0.00 45 1009.9
20260508194603 66 167 5.2 15.6 0.00 0.00 0.00 45 1009.9
20260508194503 66 231 5.2 15.6 0.00 0.00 0.00 45 1009.9
20260508194403 66 176 5.2 15.6 0.00 0.00 0.00 45 1009.9
20260508194303 66 212 7.0 15.6 0.00 0.00 0.00 45 1009.9
20260508194203 66 238 7.8 15.6 0.00 0.00 0.00 43 1009.9
20260508194103 66 201 7.8 15.6 0.00 0.00 0.00 45 1009.9
20260508194003 66 158 6.1 13.0 0.00 0.00 0.00 44 1009.9
20260508193903 66 183 6.1 13.0 0.00 0.00 0.00 44 1009.9
20260508193803 66 214 6.1 13.0 0.00 0.00 0.00 44 1009.9
20260508193703 66 208 6.1 13.0 0.00 0.00 0.00 44 1009.9
20260508193603 66 193 5.2 13.0 0.00 0.00 0.00 45 1009.9
20260508193503 66 141 4.3 14.8 0.00 0.00 0.00 45 1009.9
20260508193403 66 183 6.1 15.6 0.00 0.00 0.00 45 1009.9
20260508193303 66 212 4.3 15.6 0.00 0.00 0.00 47 1009.9
20260508193203 66 203 7.8 15.6 0.00 0.00 0.00 45 1009.9
20260508193103 66 242 7.0 15.6 0.00 0.00 0.00 45 1010.2
20260508193003 66 195 5.2 15.6 0.00 0.00 0.00 45 1010.2
20260508192903 66 197 6.1 15.6 0.00 0.00 0.00 47 1010.2
20260508192803 66 205 6.1 15.6 0.00 0.00 0.00 47 1010.2
20260508192703 65 184 7.0 15.6 0.00 0.00 0.00 45 1010.2
20260508192603 65 211 8.7 15.6 0.00 0.00 0.00 46 1010.2
20260508192503 65 186 9.6 15.6 0.00 0.00 0.00 45 1010.2
20260508192403 65 180 7.8 13.9 0.00 0.00 0.00 47 1010.2
20260508192306 66 198 6.1 13.9 0.00 0.00 0.00 46 1010.2
20260508192203 66 215 5.2 11.3 0.00 0.00 0.00 46 1010.2
20260508192103 65 195 7.0 11.3 0.00 0.00 0.00 46 1010.2
20260508192003 65 180 6.1 11.3 0.00 0.00 0.00 46 1010.2
20260508191903 66 214 4.3 11.3 0.00 0.00 0.00 47 1010.2
20260508191803 65 224 5.2 11.3 0.00 0.00 0.00 46 1010.2
20260508191703 66 229 6.1 11.3 0.00 0.00 0.00 47 1010.2
20260508191603 65 205 8.7 11.3 0.00 0.00 0.00 46 1010.2
20260508191503 66 142 4.3 11.3 0.00 0.00 0.00 46 1010.2
20260508191403 66 180 2.6 11.3 0.00 0.00 0.00 46 1010.2
20260508191303 66 49 5.2 11.3 0.00 0.00 0.00 45 1010.2
20260508191203 66 214 6.1 11.3 0.00 0.00 0.00 45 1010.2
20260508191103 66 225 6.1 11.3 0.00 0.00 0.00 45 1010.5
20260508191003 66 177 3.5 7.8 0.00 0.00 0.00 46 1010.2
20260508190903 66 288 4.3 9.6 0.00 0.00 0.00 46 1010.5
20260508190803 66 270 3.5 9.6 0.00 0.00 0.00 47 1010.5
20260508190703 66 135 4.3 12.2 0.00 0.00 0.00 47 1010.5
20260508190603 66 138 1.7 12.2 0.00 0.00 0.00 46 1010.5
20260508190503 65 238 4.3 12.2 0.00 0.00 0.00 46 1010.5
20260508190403 65 214 3.5 12.2 0.00 0.00 0.00 46 1010.5
20260508190303 65 186 4.3 13.9 0.00 0.00 0.00 45 1010.5
20260508190203 65 271 2.6 13.9 0.00 0.00 0.00 46 1010.5
20260508190103 65 307 3.5 13.9 0.00 0.00 0.00 46 1010.5
20260508190004 65 210 5.2 13.9 0.00 0.00 0.00 45 1010.5
20260508185903 65 304 4.3 13.9 0.00 0.00 0.00 44 1010.5
20260508185803 65 264 5.2 13.9 0.00 0.00 0.00 45 1010.5
20260508185703 65 203 4.3 13.9 0.00 0.00 0.00 45 1010.5
20260508185603 65 207 7.0 13.9 0.00 0.00 0.00 45 1010.5
20260508185503 65 160 6.1 13.9 0.00 0.00 0.00 44 1010.5
20260508185403 65 204 8.7 15.6 0.00 0.00 0.00 45 1010.5
20260508185306 65 205 6.1 15.6 0.00 0.00 0.00 45 1010.5
20260508185203 65 191 7.0 15.6 0.00 0.00 0.00 45 1010.5
20260508185103 65 231 6.1 15.6 0.00 0.00 0.00 44 1010.9
20260508185003 65 200 7.8 15.6 0.00 0.00 0.00 44 1010.5
20260508184903 66 198 7.0 15.6 0.00 0.00 0.00 44 1010.5
20260508184803 65 221 8.7 15.6 0.00 0.00 0.00 43 1010.9
20260508184703 66 194 7.0 15.6 0.00 0.00 0.00 43 1010.5
20260508184604 66 205 6.1 15.6 0.00 0.00 0.00 43 1010.5
20260508184504 66 217 7.8 15.6 0.00 0.00 0.00 43 1010.9
20260508184403 67 195 2.6 12.2 0.00 0.00 0.00 45 1010.9
20260508184303 66 283 4.3 12.2 0.00 0.00 0.00 44 1010.5
20260508184203 66 194 5.2 11.3 0.00 0.00 0.00 44 1010.5
20260508184103 66 188 6.1 11.3 0.00 0.00 0.00 43 1010.5
20260508184003 67 198 1.7 11.3 0.00 0.00 0.00 44 1010.5
20260508183903 67 159 4.3 11.3 0.00 0.00 0.00 43 1010.9
20260508183803 66 181 5.2 12.2 0.00 0.00 0.00 44 1010.9
20260508183703 66 250 5.2 16.5 0.00 0.00 0.00 42 1010.9
20260508183603 66 242 8.7 16.5 0.00 0.00 0.00 43 1010.5
20260508183503 67 194 4.3 16.5 0.00 0.00 0.00 43 1010.5
20260508183403 67 271 4.3 16.5 0.00 0.00 0.00 42 1010.5
20260508183303 67 156 4.3 16.5 0.00 0.00 0.00 44 1010.5
20260508183203 67 139 3.5 16.5 0.00 0.00 0.00 43 1010.5
20260508183103 67 215 4.3 16.5 0.00 0.00 0.00 44 1010.5
20260508183003 67 187 7.0 16.5 0.00 0.00 0.00 43 1010.5
20260508182903 67 191 7.8 16.5 0.00 0.00 0.00 42 1010.5
20260508182803 67 150 11.3 16.5 0.00 0.00 0.00 43 1010.5
20260508182703 67 181 8.7 16.5 0.00 0.00 0.00 43 1010.5
20260508182603 67 173 7.0 16.5 0.00 0.00 0.00 44 1010.5
20260508182503 67 214 10.4 16.5 0.00 0.00 0.00 43 1010.5
20260508182403 67 232 5.2 13.9 0.00 0.00 0.00 45 1010.5
20260508182306 67 228 6.1 13.9 0.00 0.00 0.00 45 1010.5
20260508182203 67 162 4.3 13.9 0.00 0.00 0.00 45 1010.5
20260508182103 67 243 5.2 13.9 0.00 0.00 0.00 44 1010.5
20260508182003 67 203 7.0 13.9 0.00 0.00 0.00 44 1010.5
20260508181903 67 194 7.8 13.9 0.00 0.00 0.00 43 1010.5
20260508181803 67 210 7.8 13.9 0.00 0.00 0.00 44 1010.5
20260508181703 67 187 7.0 13.9 0.00 0.00 0.00 44 1010.5
20260508181603 67 217 5.2 12.2 0.00 0.00 0.00 46 1010.5
20260508181503 67 203 2.6 12.2 0.00 0.00 0.00 45 1010.5
20260508181403 67 194 4.3 12.2 0.00 0.00 0.00 45 1010.5
20260508181303 66 262 4.3 12.2 0.00 0.00 0.00 45 1010.5
20260508181203 66 238 7.0 12.2 0.00 0.00 0.00 44 1010.5
20260508181103 67 204 5.2 12.2 0.00 0.00 0.00 44 1010.9
20260508181003 67 207 2.6 9.6 0.00 0.00 0.00 46 1010.9
20260508180903 66 231 5.2 9.6 0.00 0.00 0.00 45 1010.9
20260508180803 66 211 6.1 9.6 0.00 0.00 0.00 45 1010.9
20260508180703 66 218 4.3 9.6 0.00 0.00 0.00 46 1010.9
20260508180603 67 229 1.7 9.6 0.00 0.00 0.00 47 1010.9
20260508180503 66 232 4.3 10.4 0.00 0.00 0.00 46 1010.9
20260508180403 66 308 3.5 10.4 0.00 0.00 0.00 45 1010.9
20260508180303 66 263 3.5 10.4 0.00 0.00 0.00 46 1010.9
20260508180203 66 273 3.5 10.4 0.00 0.00 0.00 46 1010.9
20260508180103 66 218 2.6 12.2 0.00 0.00 0.00 47 1010.9
20260508180004 66 273 5.2 12.2 0.00 0.00 0.00 47 1010.9
20260508175903 66 155 3.5 12.2 0.00 0.00 0.00 47 1010.9
20260508175803 66 278 5.2 12.2 0.00 0.00 0.00 46 1010.9
20260508175703 66 201 5.2 13.9 0.00 0.00 0.00 45 1010.9
20260508175603 66 240 4.3 13.9 0.00 0.00 0.00 46 1010.9
20260508175504 66 219 5.2 13.9 0.00 0.00 0.00 45 1010.9
20260508175403 66 203 4.3 13.9 0.00 0.00 0.00 46 1010.9
20260508175306 66 222 4.3 13.9 0.00 0.00 0.00 46 1010.9
20260508175203 66 242 7.0 13.9 0.00 0.00 0.00 45 1010.9
20260508175104 66 211 6.1 13.9 0.00 0.00 0.00 44 1010.9
20260508175004 66 205 5.2 13.9 0.00 0.00 0.00 46 1010.9
20260508174903 66 256 7.8 13.9 0.00 0.00 0.00 45 1010.9
20260508174803 66 167 7.0 13.9 0.00 0.00 0.00 45 1010.9
20260508174703 66 198 1.7 13.9 0.00 0.00 0.00 45 1010.9
20260508174603 66 93 5.2 13.9 0.00 0.00 0.00 44 1011.2
20260508174504 66 191 7.0 13.9 0.00 0.00 0.00 44 1011.2
20260508174403 66 191 7.8 13.9 0.00 0.00 0.00 43 1011.2
20260508174303 67 187 7.8 13.9 0.00 0.00 0.00 43 1011.2
20260508174203 67 229 4.3 13.9 0.00 0.00 0.00 44 1011.2
20260508174103 67 194 7.8 13.9 0.00 0.00 0.00 43 1011.2
20260508174003 67 191 8.7 13.9 0.00 0.00 0.00 44 1011.2
20260508173903 67 201 8.7 13.9 0.00 0.00 0.00 42 1011.2
20260508173804 68 170 2.6 13.9 0.00 0.00 0.00 45 1011.6
20260508173704 67 228 6.1 13.9 0.00 0.00 0.00 44 1011.6
20260508173603 67 118 4.3 13.9 0.00 0.00 0.00 44 1011.2
20260508173504 67 325 7.0 13.9 0.00 0.00 0.00 42 1011.6
20260508173403 67 200 6.1 12.2 0.00 0.00 0.00 44 1011.6
20260508173303 67 194 4.3 12.2 0.00 0.00 0.00 45 1011.6
20260508173204 67 198 7.0 12.2 0.00 0.00 0.00 44 1011.6
20260508173103 67 218 7.0 12.2 0.00 0.00 0.00 45 1011.6
20260508173003 67 226 5.2 12.2 0.00 0.00 0.00 46 1011.6
20260508172903 67 239 6.1 12.2 0.00 0.00 0.00 45 1011.6
20260508172803 66 233 5.2 12.2 0.00 0.00 0.00 46 1011.6
20260508172703 66 238 7.8 12.2 0.00 0.00 0.00 44 1011.6
20260508172603 66 194 5.2 11.3 0.00 0.00 0.00 47 1011.6
20260508172503 66 122 4.3 11.3 0.00 0.00 0.00 46 1011.6
20260508172403 66 222 5.2 11.3 0.00 0.00 0.00 45 1011.6
20260508172307 66 197 5.2 11.3 0.00 0.00 0.00 47 1011.6
20260508172204 66 260 4.3 10.4 0.00 0.00 0.00 47 1011.6
20260508172103 66 212 3.5 10.4 0.00 0.00 0.00 47 1011.6
20260508172003 66 205 4.3 10.4 0.00 0.00 0.00 46 1011.6
20260508171904 65 195 4.3 10.4 0.00 0.00 0.00 47 1011.6
20260508171803 66 242 2.6 10.4 0.00 0.00 0.00 47 1011.6
20260508171703 66 82 1.7 10.4 0.00 0.00 0.00 47 1011.6
20260508171603 66 205 3.5 10.4 0.00 0.00 0.00 46 1011.6
20260508171504 66 179 3.5 10.4 0.00 0.00 0.00 46 1011.9
20260508171404 65 215 7.0 10.4 0.00 0.00 0.00 46 1011.9
20260508171304 66 255 6.1 10.4 0.00 0.00 0.00 45 1011.9
20260508171203 66 191 6.1 11.3 0.00 0.00 0.00 45 1011.9
20260508171104 66 309 3.5 11.3 0.00 0.00 0.00 46 1011.9
20260508171003 66 152 3.5 11.3 0.00 0.00 0.00 46 1011.9
20260508170904 66 195 6.1 11.3 0.00 0.00 0.00 46 1011.9
20260508170803 66 194 7.0 11.3 0.00 0.00 0.00 46 1011.9
20260508170704 66 248 5.2 11.3 0.00 0.00 0.00 47 1011.9
20260508170604 66 195 5.2 11.3 0.00 0.00 0.00 46 1011.9
20260508170504 65 155 7.0 11.3 0.00 0.00 0.00 45 1012.2
20260508170404 65 163 7.0 11.3 0.00 0.00 0.00 45 1012.2
20260508170304 65 150 6.1 11.3 0.00 0.00 0.00 46 1012.2
20260508170204 65 211 6.1 10.4 0.00 0.00 0.00 47 1012.2
20260508170103 65 208 5.2 10.4 0.00 0.00 0.00 47 1012.2
20260508170004 65 156 4.3 10.4 0.00 0.00 0.00 47 1012.2
20260508165904 65 152 7.0 10.4 0.00 0.00 0.00 46 1012.2
20260508165804 65 191 6.1 10.4 0.00 0.00 0.00 48 1012.2
20260508165703 65 183 6.1 10.4 0.00 0.00 0.00 46 1012.2
20260508165604 64 222 7.0 10.4 0.00 0.00 0.00 47 1012.2
20260508165504 64 208 5.2 10.4 0.00 0.00 0.00 46 1012.2
20260508165404 64 197 7.0 9.6 0.00 0.00 0.00 47 1012.6
20260508165306 65 191 2.6 8.7 0.00 0.00 0.00 48 1012.6
20260508165204 64 59 2.6 8.7 0.00 0.00 0.00 48 1012.6
20260508165104 64 323 2.6 8.7 0.00 0.00 0.00 49 1012.6
20260508165004 64 269 5.2 8.7 0.00 0.00 0.00 48 1012.6
20260508164904 64 179 5.2 8.7 0.00 0.00 0.00 49 1012.6
20260508164804 64 181 5.2 7.0 0.00 0.00 0.00 48 1012.6
20260508164704 64 201 4.3 7.0 0.00 0.00 0.00 48 1012.6
20260508164603 64 198 0.9 7.8 0.00 0.00 0.00 49 1012.9
20260508164504 64 215 3.5 7.8 0.00 0.00 0.00 49 1012.9
20260508164404 64 167 0.9 7.8 0.00 0.00 0.00 49 1012.9
20260508164304 64 203 1.7 7.8 0.00 0.00 0.00 49 1012.9
20260508164204 64 359 4.3 8.7 0.00 0.00 0.00 49 1012.9
20260508164104 63 225 4.3 9.6 0.00 0.00 0.00 49 1012.9
20260508164004 64 300 1.7 9.6 0.00 0.00 0.00 50 1012.9
20260508163904 63 217 3.5 9.6 0.00 0.00 0.00 49 1012.9
20260508163804 63 191 3.5 9.6 0.00 0.00 0.00 49 1012.9
20260508163704 63 203 3.5 9.6 0.00 0.00 0.00 50 1012.9
20260508163604 63 23 0.9 9.6 0.00 0.00 0.00 51 1012.9
20260508163504 63 200 2.6 9.6 0.00 0.00 0.00 49 1012.9
20260508163404 63 208 5.2 9.6 0.00 0.00 0.00 50 1012.9
20260508163304 63 218 5.2 9.6 0.00 0.00 0.00 49 1012.9
20260508163204 63 229 6.1 9.6 0.00 0.00 0.00 50 1012.9
20260508163104 63 197 4.3 8.7 0.00 0.00 0.00 49 1012.9
20260508163004 63 115 6.1 8.7 0.00 0.00 0.00 49 1012.9
20260508162904 63 218 5.2 8.7 0.00 0.00 0.00 49 1012.9
20260508162804 63 208 3.5 8.7 0.00 0.00 0.00 52 1013.2
20260508162704 63 45 2.6 8.7 0.00 0.00 0.00 51 1013.2
20260508162604 63 260 2.6 7.0 0.00 0.00 0.00 50 1012.9
20260508162504 63 243 2.6 7.0 0.00 0.00 0.00 51 1013.2
20260508162404 63 134 2.6 7.0 0.00 0.00 0.00 51 1013.2
20260508162306 63 242 1.7 7.0 0.00 0.00 0.00 52 1013.2
20260508162204 63 242 1.7 7.0 0.00 0.00 0.00 52 1013.2
20260508162104 62 228 2.6 7.0 0.00 0.00 0.00 52 1013.2
20260508162004 62 259 2.6 7.0 0.00 0.00 0.00 51 1013.2
20260508161904 62 225 0.9 7.0 0.00 0.00 0.00 51 1013.2
20260508161804 62 283 2.6 7.0 0.00 0.00 0.00 50 1013.2
20260508161704 62 256 2.6 7.0 0.00 0.00 0.00 52 1013.2
20260508161604 62 226 2.6 7.0 0.00 0.00 0.00 52 1013.2
20260508161504 62 255 0.9 7.0 0.00 0.00 0.00 52 1013.2
20260508161404 62 347 2.6 7.0 0.00 0.00 0.00 51 1013.2
20260508161304 62 297 3.5 6.1 0.00 0.00 0.00 51 1013.2
20260508161204 62 278 3.5 6.1 0.00 0.00 0.00 51 1013.2
20260508161104 62 260 2.6 6.1 0.00 0.00 0.00 52 1013.2
20260508161004 62 314 4.3 6.1 0.00 0.00 0.00 50 1013.2
20260508160904 62 243 2.6 6.1 0.00 0.00 0.00 51 1013.2
20260508160804 62 219 1.7 6.1 0.00 0.00 0.00 53 1013.2
20260508160704 62 176 0.9 6.1 0.00 0.00 0.00 53 1013.2
20260508160604 62 295 2.6 6.1 0.00 0.00 0.00 52 1013.2
20260508160504 61 256 3.5 6.1 0.00 0.00 0.00 54 1013.2
20260508160404 61 283 1.7 6.1 0.00 0.00 0.00 55 1013.2
20260508160304 61 280 1.7 6.1 0.00 0.00 0.00 54 1013.2
20260508160204 61 207 3.5 6.1 0.00 0.00 0.00 54 1013.2
20260508160104 61 217 0.9 6.1 0.00 0.00 0.00 55 1013.2
20260508160004 61 323 1.7 7.0 0.00 0.00 0.00 54 1013.2
20260508155904 61 297 1.7 7.0 0.00 0.00 0.00 55 1013.2
20260508155804 60 224 2.6 7.0 0.00 0.00 0.00 54 1013.2
20260508155704 60 180 1.7 7.0 0.00 0.00 0.00 54 1013.2
20260508155604 60 225 0.9 7.0 0.00 0.00 0.00 54 1013.2
20260508155504 60 284 1.7 7.0 0.00 0.00 0.00 54 1013.2
20260508155404 60 262 2.6 7.0 0.00 0.00 0.00 54 1013.2
20260508155306 60 231 2.6 7.0 0.00 0.00 0.00 54 1013.6
20260508155204 60 246 3.5 7.0 0.00 0.00 0.00 53 1013.2
20260508155104 60 235 3.5 7.0 0.00 0.00 0.00 53 1013.6
20260508155004 60 252 3.5 7.0 0.00 0.00 0.00 53 1013.2
20260508154904 60 329 2.6 6.1 0.00 0.00 0.00 53 1013.2
20260508154804 60 10 1.7 6.1 0.00 0.00 0.00 54 1013.2
20260508154704 60 218 2.6 7.8 0.00 0.00 0.00 53 1013.2
20260508154604 60 297 3.5 7.8 0.00 0.00 0.00 53 1013.2
20260508154504 60 285 2.6 7.8 0.00 0.00 0.00 53 1013.2
20260508154403 60 260 3.5 7.8 0.00 0.00 0.00 54 1013.2
20260508154303 60 297 2.6 7.8 0.00 0.00 0.00 54 1013.2
20260508154203 60 201 3.5 7.8 0.00 0.00 0.00 52 1013.2
20260508154103 60 197 2.6 7.8 0.00 0.00 0.00 53 1013.2
20260508154004 59 117 2.6 7.8 0.00 0.00 0.00 53 1013.6
20260508153903 59 350 3.5 9.6 0.00 0.00 0.00 55 1013.2
20260508153803 59 285 4.3 9.6 0.00 0.00 0.00 54 1013.6
20260508153703 59 291 2.6 9.6 0.00 0.00 0.00 54 1013.6
20260508153604 59 233 4.3 9.6 0.00 0.00 0.00 53 1013.6
20260508153503 59 219 2.6 9.6 0.00 0.00 0.00 53 1013.6
20260508153403 59 238 5.2 9.6 0.00 0.00 0.00 53 1013.6
20260508153303 59 269 3.5 9.6 0.00 0.00 0.00 53 1013.6
20260508153203 59 259 2.6 9.6 0.00 0.00 0.00 52 1013.6
20260508153103 59 83 3.5 9.6 0.00 0.00 0.00 53 1013.6
20260508153004 59 214 4.3 9.6 0.00 0.00 0.00 52 1013.6
20260508152903 59 200 2.6 7.0 0.00 0.00 0.00 53 1013.6
20260508152803 59 179 5.2 7.0 0.00 0.00 0.00 53 1013.6
20260508152703 59 205 4.3 7.8 0.00 0.00 0.00 54 1013.6
20260508152603 59 97 1.7 7.8 0.00 0.00 0.00 54 1013.6
20260508152503 59 255 3.5 7.8 0.00 0.00 0.00 53 1013.6
20260508152403 59 212 1.7 7.8 0.00 0.00 0.00 54 1013.6
20260508152306 59 148 0.9 7.8 0.00 0.00 0.00 54 1013.6
20260508152203 59 142 2.6 7.8 0.00 0.00 0.00 53 1013.6
20260508152103 59 298 2.6 9.6 0.00 0.00 0.00 53 1013.6
20260508152004 59 294 2.6 11.3 0.00 0.00 0.00 54 1013.6
20260508151903 59 177 1.7 11.3 0.00 0.00 0.00 53 1013.6
20260508151803 59 295 3.5 11.3 0.00 0.00 0.00 53 1013.6
20260508151703 59 249 3.5 11.3 0.00 0.00 0.00 53 1013.6
20260508151603 59 302 3.5 11.3 0.00 0.00 0.00 54 1013.6
20260508151504 59 253 2.6 11.3 0.00 0.00 0.00 54 1013.6
20260508151404 59 295 2.6 11.3 0.00 0.00 0.00 54 1013.6
20260508151304 59 242 4.3 11.3 0.00 0.00 0.00 53 1013.6
20260508151204 59 203 4.3 11.3 0.00 0.00 0.00 51 1013.6
20260508151104 58 259 7.0 11.3 0.00 0.00 0.00 51 1013.6
20260508151004 59 173 3.5 11.3 0.00 0.00 0.00 53 1013.6
20260508150903 58 135 4.3 11.3 0.00 0.00 0.00 53 1013.6
20260508150803 58 183 5.2 11.3 0.00 0.00 0.00 54 1013.6
20260508150703 58 221 2.6 9.6 0.00 0.00 0.00 55 1013.6
20260508150603 58 298 2.6 9.6 0.00 0.00 0.00 55 1013.6
20260508150504 58 269 2.6 9.6 0.00 0.00 0.00 54 1013.6
20260508150403 58 280 4.3 9.6 0.00 0.00 0.00 53 1013.6
20260508150303 58 194 5.2 9.6 0.00 0.00 0.00 55 1013.6
20260508150204 57 162 3.5 9.6 0.00 0.00 0.00 56 1013.6
20260508150103 57 270 1.7 9.6 0.00 0.00 0.00 58 1013.6
20260508150004 57 267 2.6 9.6 0.00 0.00 0.00 57 1013.6
20260508145903 57 176 3.5 9.6 0.00 0.00 0.00 58 1013.6
20260508145803 57 214 5.2 9.6 0.00 0.00 0.00 55 1013.6
20260508145703 57 210 4.3 9.6 0.00 0.00 0.00 57 1013.6
20260508145603 57 186 2.6 9.6 0.00 0.00 0.00 59 1013.6
20260508145503 56 139 6.1 9.6 0.00 0.00 0.00 58 1013.6
20260508145403 56 162 5.2 9.6 0.00 0.00 0.00 58 1013.6
20260508145306 56 260 5.2 9.6 0.00 0.00 0.00 59 1013.6
20260508145203 56 194 1.7 9.6 0.00 0.00 0.00 60 1013.6
20260508145104 56 285 1.7 9.6 0.00 0.00 0.00 59 1013.6
20260508145003 56 180 3.5 9.6 0.00 0.00 0.00 59 1013.6
20260508144903 56 229 6.1 9.6 0.00 0.00 0.00 59 1013.6
20260508144803 56 138 5.2 9.6 0.00 0.00 0.00 59 1013.6
20260508144703 55 200 6.1 9.6 0.00 0.00 0.00 60 1013.6
20260508144604 55 208 5.2 8.7 0.00 0.00 0.00 60 1013.6
20260508144504 55 149 4.3 8.7 0.00 0.00 0.00 60 1013.6
20260508144403 55 190 5.2 8.7 0.00 0.00 0.00 60 1013.6
20260508144304 55 184 4.3 8.7 0.00 0.00 0.00 61 1013.6
20260508144203 55 197 4.3 10.4 0.00 0.00 0.00 60 1013.6
20260508144103 55 191 3.5 10.4 0.00 0.00 0.00 61 1013.6
20260508144003 55 281 3.5 10.4 0.00 0.00 0.00 61 1013.6
20260508143904 55 233 4.3 10.4 0.00 0.00 0.00 61 1013.6
20260508143803 55 200 6.1 10.4 0.00 0.00 0.00 60 1013.6
20260508143703 55 204 3.5 10.4 0.00 0.00 0.00 61 1013.6
20260508143603 55 231 5.2 10.4 0.00 0.00 0.00 60 1013.6
20260508143504 54 214 4.3 10.4 0.00 0.00 0.00 61 1013.6
20260508143403 55 122 2.6 10.4 0.00 0.00 0.00 61 1013.6
20260508143304 54 193 6.1 10.4 0.00 0.00 0.00 61 1013.6
20260508143203 54 201 6.1 9.6 0.00 0.00 0.00 61 1013.6
20260508143104 54 198 6.1 9.6 0.00 0.00 0.00 61 1013.6
20260508143004 54 204 3.5 6.1 0.00 0.00 0.00 62 1013.6
20260508142904 54 174 2.6 6.1 0.00 0.00 0.00 63 1013.6
20260508142803 54 180 2.6 6.1 0.00 0.00 0.00 62 1013.6
20260508142703 54 169 2.6 6.1 0.00 0.00 0.00 62 1013.6
20260508142603 54 184 4.3 7.0 0.00 0.00 0.00 62 1013.6
20260508142504 54 235 2.6 7.0 0.00 0.00 0.00 62 1013.6
20260508142404 54 217 4.3 7.0 0.00 0.00 0.00 61 1013.6
20260508142306 54 207 3.5 7.0 0.00 0.00 0.00 62 1013.6
20260508142204 54 158 4.3 7.0 0.00 0.00 0.00 62 1013.6
20260508142103 54 198 3.5 7.0 0.00 0.00 0.00 63 1013.6
20260508142004 54 166 3.5 7.0 0.00 0.00 0.00 63 1013.6
20260508141903 54 238 2.6 7.0 0.00 0.00 0.00 63 1013.6
20260508141804 54 253 3.5 7.0 0.00 0.00 0.00 63 1013.6
20260508141703 54 188 4.3 7.0 0.00 0.00 0.00 63 1013.6
20260508141604 54 187 1.7 7.8 0.00 0.00 0.00 64 1013.6
20260508141504 54 208 2.6 7.8 0.00 0.00 0.00 63 1013.6
20260508141404 53 158 2.6 7.8 0.00 0.00 0.00 64 1013.6
20260508141304 53 187 2.6 7.8 0.00 0.00 0.00 64 1013.6
20260508141204 53 253 3.5 7.8 0.00 0.00 0.00 64 1013.6
20260508141103 53 149 3.5 7.8 0.00 0.00 0.00 64 1013.6
20260508141004 53 188 2.6 7.8 0.00 0.00 0.00 64 1013.6
20260508140903 53 203 3.5 7.8 0.00 0.00 0.00 64 1013.6
20260508140804 53 191 4.3 7.8 0.00 0.00 0.00 64 1013.6
20260508140704 53 201 4.3 7.8 0.00 0.00 0.00 64 1013.6
20260508140604 53 248 3.5 7.0 0.00 0.00 0.00 64 1013.6
20260508140504 53 181 3.5 7.0 0.00 0.00 0.00 64 1013.6
20260508140404 53 46 0.0 7.0 0.00 0.00 0.00 65 1013.6
20260508140304 53 53 2.6 7.0 0.00 0.00 0.00 64 1013.6
20260508140204 53 248 4.3 7.0 0.00 0.00 0.00 65 1013.6
20260508140104 53 197 5.2 7.0 0.00 0.00 0.00 64 1013.6
20260508140004 53 218 3.5 7.0 0.00 0.00 0.00 65 1013.6
20260508135903 53 231 3.5 7.8 0.00 0.00 0.00 64 1013.6
20260508135804 53 203 4.3 8.7 0.00 0.00 0.00 64 1013.6
20260508135703 53 193 5.2 8.7 0.00 0.00 0.00 65 1013.6
20260508135604 53 177 4.3 8.7 0.00 0.00 0.00 65 1013.6
20260508135504 53 288 2.6 8.7 0.00 0.00 0.00 65 1013.6
20260508135403 53 226 4.3 8.7 0.00 0.00 0.00 65 1013.6
20260508135306 52 197 5.2 8.7 0.00 0.00 0.00 65 1013.6
20260508135203 52 195 4.3 8.7 0.00 0.00 0.00 65 1013.6
20260508135104 52 242 1.7 8.7 0.00 0.00 0.00 65 1013.6
20260508135004 52 228 5.2 8.7 0.00 0.00 0.00 65 1013.6
20260508134904 52 198 6.1 8.7 0.00 0.00 0.00 65 1013.6
20260508134804 52 200 5.2 7.0 0.00 0.00 0.00 64 1013.6
20260508134704 52 165 5.2 7.0 0.00 0.00 0.00 65 1013.6
20260508134604 52 215 4.3 7.0 0.00 0.00 0.00 65 1013.6
20260508134504 52 232 4.3 7.0 0.00 0.00 0.00 65 1013.6
20260508134404 52 188 4.3 7.0 0.00 0.00 0.00 66 1013.6
20260508134304 52 139 3.5 7.0 0.00 0.00 0.00 66 1013.6
20260508134204 52 124 1.7 7.0 0.00 0.00 0.00 66 1013.6
20260508134104 52 198 3.5 7.0 0.00 0.00 0.00 66 1013.6
20260508134004 52 167 2.6 7.0 0.00 0.00 0.00 66 1013.6
20260508133904 52 212 4.3 7.0 0.00 0.00 0.00 66 1013.6
20260508133804 52 173 2.6 7.0 0.00 0.00 0.00 66 1013.6
20260508133704 52 195 3.5 7.0 0.00 0.00 0.00 66 1013.6
20260508133604 52 194 2.6 7.0 0.00 0.00 0.00 66 1013.6
20260508133504 52 207 3.5 7.0 0.00 0.00 0.00 66 1013.6
20260508133404 52 219 2.6 7.0 0.00 0.00 0.00 66 1013.6
20260508133303 52 219 4.3 7.0 0.00 0.00 0.00 66 1013.6
20260508133204 52 219 3.5 7.0 0.00 0.00 0.00 67 1013.6
20260508133104 52 212 4.3 7.8 0.00 0.00 0.00 67 1013.6
20260508133004 52 201 2.6 7.8 0.00 0.00 0.00 67 1013.6
20260508132904 52 280 2.6 7.8 0.00 0.00 0.00 68 1013.6
20260508132804 52 173 1.7 7.8 0.00 0.00 0.00 68 1013.6
20260508132704 52 229 1.7 7.8 0.00 0.00 0.00 67 1013.6
20260508132604 51 224 3.5 7.8 0.00 0.00 0.00 67 1013.6
20260508132504 51 236 3.5 7.8 0.00 0.00 0.00 67 1013.6
20260508132404 51 155 3.5 7.8 0.00 0.00 0.00 68 1013.6
20260508132306 51 188 3.5 7.8 0.00 0.00 0.00 67 1013.6
20260508132204 51 235 5.2 7.8 0.00 0.00 0.00 67 1013.6
20260508132104 51 183 2.6 7.8 0.00 0.00 0.00 68 1013.6
20260508132004 51 187 4.3 7.8 0.00 0.00 0.00 67 1013.6
20260508131903 51 191 1.7 7.8 0.00 0.00 0.00 68 1013.6
20260508131804 51 176 0.9 7.8 0.00 0.00 0.00 68 1013.6
20260508131704 51 191 0.0 7.8 0.00 0.00 0.00 68 1013.6
20260508131604 51 191 2.6 7.8 0.00 0.00 0.00 68 1013.6
20260508131504 51 198 5.2 7.8 0.00 0.00 0.00 68 1013.6
20260508131404 51 221 4.3 7.8 0.00 0.00 0.00 68 1013.6
20260508131304 51 193 4.3 7.8 0.00 0.00 0.00 68 1013.6
20260508131204 51 201 5.2 7.8 0.00 0.00 0.00 68 1013.6
20260508131104 51 217 3.5 7.8 0.00 0.00 0.00 68 1013.6
20260508131004 51 191 5.2 7.8 0.00 0.00 0.00 68 1013.6
20260508130904 51 183 4.3 7.8 0.00 0.00 0.00 68 1013.6
20260508130804 51 184 4.3 7.8 0.00 0.00 0.00 69 1013.6
20260508130704 51 198 3.5 7.8 0.00 0.00 0.00 69 1013.6
20260508130604 51 231 4.3 7.8 0.00 0.00 0.00 68 1013.6
20260508130504 51 186 3.5 7.8 0.00 0.00 0.00 68 1013.6
20260508130404 51 232 3.5 7.8 0.00 0.00 0.00 68 1013.6
20260508130304 51 207 5.2 7.8 0.00 0.00 0.00 68 1013.6
20260508130204 51 197 4.3 7.8 0.00 0.00 0.00 68 1013.6
20260508130104 51 184 4.3 7.0 0.00 0.00 0.00 68 1013.6
20260508130004 51 211 3.5 7.0 0.00 0.00 0.00 68 1013.6
20260508125904 51 201 4.3 7.0 0.00 0.00 0.00 68 1013.6
20260508125804 51 180 3.5 7.0 0.00 0.00 0.00 68 1013.6
20260508125704 51 205 3.5 7.0 0.00 0.00 0.00 68 1013.6
20260508125604 51 205 3.5 7.0 0.00 0.00 0.00 68 1013.6
20260508125504 51 228 1.7 6.1 0.00 0.00 0.00 69 1013.6
20260508125404 51 207 2.6 6.1 0.00 0.00 0.00 68 1013.6
20260508125306 51 172 1.7 6.1 0.00 0.00 0.00 69 1013.6
20260508125204 51 208 2.6 6.1 0.00 0.00 0.00 69 1013.6
20260508125104 51 187 2.6 6.1 0.00 0.00 0.00 69 1013.6
20260508125004 51 262 2.6 6.1 0.00 0.00 0.00 69 1013.6
20260508124904 51 214 2.6 6.1 0.00 0.00 0.00 68 1013.6
20260508124804 51 180 4.3 6.1 0.00 0.00 0.00 69 1013.6
20260508124704 51 184 2.6 6.1 0.00 0.00 0.00 69 1013.6
20260508124604 51 172 1.7 7.0 0.00 0.00 0.00 69 1013.6
20260508124504 51 211 4.3 7.0 0.00 0.00 0.00 68 1013.6
20260508124404 51 193 3.5 7.0 0.00 0.00 0.00 69 1013.6
20260508124304 51 218 2.6 7.0 0.00 0.00 0.00 69 1013.6
20260508124204 51 236 2.6 7.0 0.00 0.00 0.00 69 1013.6
20260508124104 51 197 3.5 7.0 0.00 0.00 0.00 68 1013.6
20260508124004 51 228 3.5 7.0 0.00 0.00 0.00 69 1013.6
20260508123904 50 221 3.5 7.0 0.00 0.00 0.00 69 1013.6
20260508123804 51 195 2.6 7.0 0.00 0.00 0.00 69 1013.6
20260508123704 50 188 5.2 7.0 0.00 0.00 0.00 69 1013.6
20260508123604 50 211 3.5 7.8 0.00 0.00 0.00 69 1013.6
20260508123504 50 174 4.3 7.8 0.00 0.00 0.00 69 1013.6
20260508123404 50 155 3.5 7.8 0.00 0.00 0.00 69 1013.6
20260508123304 50 214 3.5 7.8 0.00 0.00 0.00 69 1013.6
20260508123204 50 193 5.2 7.8 0.00 0.00 0.00 68 1013.6
20260508123104 50 238 3.5 7.8 0.00 0.00 0.00 69 1013.6
20260508123004 50 232 4.3 7.8 0.00 0.00 0.00 69 1013.6
20260508122904 50 186 5.2 7.8 0.00 0.00 0.00 69 1013.6
20260508122804 50 207 4.3 7.8 0.00 0.00 0.00 69 1013.6
20260508122704 50 228 5.2 7.8 0.00 0.00 0.00 69 1013.6
20260508122604 50 210 4.3 7.8 0.00 0.00 0.00 69 1013.6
20260508122504 50 203 3.5 7.8 0.00 0.00 0.00 70 1013.6
20260508122404 50 183 3.5 7.8 0.00 0.00 0.00 70 1013.6
20260508122306 50 180 3.5 7.8 0.00 0.00 0.00 69 1013.6
20260508122204 50 222 3.5 7.8 0.00 0.00 0.00 70 1013.6
20260508122104 50 208 4.3 7.8 0.00 0.00 0.00 69 1013.6
20260508122004 50 204 2.6 7.8 0.00 0.00 0.00 69 1013.6
20260508121904 50 219 3.5 7.8 0.00 0.00 0.00 69 1013.6
20260508121804 50 204 4.3 7.8 0.00 0.00 0.00 69 1013.6
20260508121704 50 203 3.5 7.8 0.00 0.00 0.00 69 1013.6
20260508121604 50 194 2.6 7.8 0.00 0.00 0.00 70 1013.6
20260508121504 50 187 2.6 7.8 0.00 0.00 0.00 69 1013.6
20260508121404 50 203 4.3 7.8 0.00 0.00 0.00 69 1013.6
20260508121304 50 193 4.3 7.8 0.00 0.00 0.00 69 1013.6
20260508121204 50 212 4.3 7.0 0.00 0.00 0.00 69 1013.6
20260508121104 50 212 4.3 7.0 0.00 0.00 0.00 69 1013.6
20260508121004 50 207 4.3 7.0 0.00 0.00 0.00 69 1013.6
20260508120904 50 203 4.3 7.0 0.00 0.00 0.00 69 1013.6
20260508120804 50 156 4.3 7.0 0.00 0.00 0.00 69 1013.6
20260508120704 50 197 4.3 7.0 0.00 0.00 0.00 69 1013.6
20260508120604 50 217 4.3 7.0 0.00 0.00 0.00 69 1013.6
20260508120504 50 131 4.3 7.0 0.00 0.00 0.00 69 1013.6
20260508120404 50 195 4.3 7.0 0.00 0.00 0.00 69 1013.6
20260508120304 50 172 3.5 7.0 0.00 0.00 0.00 69 1013.6
20260508120204 50 195 4.3 7.0 0.00 0.00 0.00 69 1013.6
20260508120104 50 191 4.3 7.0 0.00 0.00 0.00 69 1013.6
20260508120004 50 201 5.2 7.0 0.00 0.00 0.00 69 1013.6
20260508115904 50 208 3.5 7.0 0.00 0.00 0.00 69 1013.6
20260508115804 50 204 4.3 7.0 0.00 0.00 0.00 69 1013.6
20260508115704 50 205 4.3 7.0 0.00 0.00 0.00 69 1013.6
20260508115604 50 187 4.3 7.0 0.00 0.00 0.00 69 1013.6
20260508115504 50 180 2.6 7.0 0.00 0.00 0.00 70 1013.6
20260508115404 50 212 2.6 7.0 0.00 0.00 0.00 70 1013.6
20260508115306 50 200 4.3 7.0 0.00 0.00 0.00 69 1013.6
20260508115204 50 159 2.6 7.0 0.00 0.00 0.00 70 1013.6
20260508115104 49 201 3.5 7.0 0.00 0.00 0.00 69 1013.6
20260508115004 49 221 4.3 7.0 0.00 0.00 0.00 69 1013.6
20260508114904 49 172 3.5 6.1 0.00 0.00 0.00 70 1013.6
20260508114804 49 215 4.3 7.0 0.00 0.00 0.00 70 1013.6
20260508114704 49 194 3.5 7.0 0.00 0.00 0.00 70 1013.6
20260508114604 49 191 3.5 7.0 0.00 0.00 0.00 70 1013.6
20260508114504 49 179 3.5 7.0 0.00 0.00 0.00 70 1013.6
20260508114404 49 187 3.5 7.0 0.00 0.00 0.00 70 1013.6
20260508114304 49 210 3.5 7.0 0.00 0.00 0.00 70 1013.6
20260508114204 49 200 3.5 7.0 0.00 0.00 0.00 70 1013.6
20260508114104 49 215 4.3 7.0 0.00 0.00 0.00 70 1013.6
20260508114004 49 162 3.5 7.0 0.00 0.00 0.00 70 1013.6
20260508113904 49 198 5.2 7.0 0.00 0.00 0.00 70 1013.2
20260508113804 49 198 3.5 7.0 0.00 0.00 0.00 70 1013.2
20260508113704 49 219 3.5 7.0 0.00 0.00 0.00 70 1013.2
20260508113604 49 242 3.5 7.0 0.00 0.00 0.00 70 1013.6
20260508113504 49 194 1.7 7.0 0.00 0.00 0.00 70 1013.2
20260508113404 49 160 1.7 7.0 0.00 0.00 0.00 70 1013.2
20260508113304 49 148 2.6 7.0 0.00 0.00 0.00 70 1013.2
20260508113204 49 176 2.6 7.0 0.00 0.00 0.00 70 1013.2
20260508113104 49 176 5.2 7.0 0.00 0.00 0.00 70 1013.2
20260508113004 49 190 2.6 6.1 0.00 0.00 0.00 70 1013.2
20260508112904 49 162 4.3 6.1 0.00 0.00 0.00 70 1013.2
20260508112804 49 191 3.5 6.1 0.00 0.00 0.00 70 1013.2
20260508112704 49 197 1.7 5.2 0.00 0.00 0.00 70 1013.2
20260508112604 49 170 2.6 5.2 0.00 0.00 0.00 70 1013.2
20260508112504 49 191 2.6 5.2 0.00 0.00 0.00 70 1013.2
20260508112404 49 218 2.6 4.3 0.00 0.00 0.00 71 1013.2
20260508112306 49 188 3.5 4.3 0.00 0.00 0.00 71 1013.2
20260508112204 49 180 1.7 5.2 0.00 0.00 0.00 71 1013.2
20260508112104 49 229 1.7 6.1 0.00 0.00 0.00 71 1013.2
20260508112004 49 222 2.6 6.1 0.00 0.00 0.00 71 1013.2
20260508111904 49 179 1.7 6.1 0.00 0.00 0.00 71 1013.2
20260508111804 49 194 1.7 6.1 0.00 0.00 0.00 71 1013.2
20260508111704 49 113 0.0 6.1 0.00 0.00 0.00 71 1013.2
20260508111604 49 201 0.9 6.1 0.00 0.00 0.00 71 1013.2
20260508111504 48 197 2.6 6.1 0.00 0.00 0.00 71 1013.2
20260508111404 48 181 3.5 6.1 0.00 0.00 0.00 71 1013.2
20260508111304 48 215 3.5 6.1 0.00 0.00 0.00 71 1013.2
20260508111204 48 198 2.6 6.1 0.00 0.00 0.00 71 1013.2
20260508111104 48 148 2.6 5.2 0.00 0.00 0.00 71 1013.2
20260508111004 48 187 2.6 5.2 0.00 0.00 0.00 71 1013.2
20260508110904 48 183 4.3 5.2 0.00 0.00 0.00 71 1013.2
20260508110804 48 212 2.6 5.2 0.00 0.00 0.00 72 1013.2
20260508110704 48 191 3.5 5.2 0.00 0.00 0.00 72 1013.2
20260508110604 48 219 2.6 5.2 0.00 0.00 0.00 72 1013.2
20260508110504 48 204 2.6 5.2 0.00 0.00 0.00 72 1013.2
20260508110404 48 221 2.6 5.2 0.00 0.00 0.00 72 1013.2
20260508110304 48 232 2.6 5.2 0.00 0.00 0.00 72 1013.2
20260508110204 48 193 3.5 5.2 0.00 0.00 0.00 71 1013.2
20260508110104 48 222 2.6 4.3 0.00 0.00 0.00 72 1012.9
20260508110004 48 177 2.6 4.3 0.00 0.00 0.00 72 1013.2
20260508105904 48 214 1.7 4.3 0.00 0.00 0.00 72 1013.2
20260508105804 48 198 1.7 4.3 0.00 0.00 0.00 72 1013.2
20260508105704 48 211 2.6 4.3 0.00 0.00 0.00 72 1013.2
20260508105604 48 169 1.7 4.3 0.00 0.00 0.00 72 1013.2
20260508105504 48 180 2.6 4.3 0.00 0.00 0.00 72 1013.2
20260508105404 48 179 1.7 4.3 0.00 0.00 0.00 72 1013.2
20260508105306 48 210 3.5 4.3 0.00 0.00 0.00 72 1013.2
20260508105204 48 195 3.5 4.3 0.00 0.00 0.00 72 1013.2
20260508105104 47 146 2.6 4.3 0.00 0.00 0.00 72 1013.2
20260508105004 47 214 2.6 4.3 0.00 0.00 0.00 72 1013.2
20260508104904 47 179 3.5 4.3 0.00 0.00 0.00 72 1013.2
20260508104804 47 174 1.7 4.3 0.00 0.00 0.00 72 1013.2
20260508104704 47 238 2.6 4.3 0.00 0.00 0.00 72 1013.2
20260508104604 47 190 2.6 4.3 0.00 0.00 0.00 72 1013.2
20260508104504 47 170 2.6 4.3 0.00 0.00 0.00 72 1013.2
20260508104404 47 233 1.7 4.3 0.00 0.00 0.00 72 1013.2
20260508104304 47 208 2.6 4.3 0.00 0.00 0.00 72 1013.2
20260508104204 47 207 2.6 4.3 0.00 0.00 0.00 72 1013.2
20260508104104 47 186 1.7 4.3 0.00 0.00 0.00 72 1013.2
20260508104004 47 207 1.7 4.3 0.00 0.00 0.00 72 1012.9
20260508103904 47 187 2.6 4.3 0.00 0.00 0.00 73 1012.9
20260508103804 47 197 2.6 4.3 0.00 0.00 0.00 73 1012.9
20260508103704 47 215 2.6 4.3 0.00 0.00 0.00 73 1013.2
20260508103604 47 170 3.5 4.3 0.00 0.00 0.00 73 1013.2
20260508103504 47 198 1.7 4.3 0.00 0.00 0.00 73 1013.2
20260508103404 47 205 1.7 4.3 0.00 0.00 0.00 73 1013.2
20260508103304 47 179 1.7 4.3 0.00 0.00 0.00 73 1013.2
20260508103204 47 191 3.5 4.3 0.00 0.00 0.00 73 1013.2
20260508103104 47 174 2.6 4.3 0.00 0.00 0.00 73 1013.2
20260508103004 47 193 2.6 4.3 0.00 0.00 0.00 73 1013.2
20260508102904 47 186 2.6 3.5 0.00 0.00 0.00 73 1013.2
20260508102804 47 158 1.7 2.6 0.00 0.00 0.00 72 1013.2
20260508102704 47 198 0.9 2.6 0.00 0.00 0.00 72 1013.2
20260508102604 47 139 0.9 2.6 0.00 0.00 0.00 72 1013.2
20260508102504 47 173 0.0 2.6 0.00 0.00 0.00 72 1013.2
20260508102404 47 162 0.0 2.6 0.00 0.00 0.00 71 1013.2
20260508102306 47 162 0.0 2.6 0.00 0.00 0.00 71 1013.2
20260508102204 47 177 0.9 2.6 0.00 0.00 0.00 72 1013.2
20260508102104 47 193 0.9 2.6 0.00 0.00 0.00 72 1013.2
20260508102004 47 108 0.0 3.5 0.00 0.00 0.00 71 1013.2
20260508101904 47 108 0.9 3.5 0.00 0.00 0.00 71 1013.2
20260508101804 47 149 1.7 4.3 0.00 0.00 0.00 71 1013.2
20260508101704 47 115 0.0 4.3 0.00 0.00 0.00 71 1013.2
20260508101604 47 152 0.9 4.3 0.00 0.00 0.00 71 1013.2
20260508101504 47 160 0.0 4.3 0.00 0.00 0.00 71 1013.2
20260508101404 47 160 0.9 4.3 0.00 0.00 0.00 71 1012.9
20260508101304 47 138 0.9 4.3 0.00 0.00 0.00 71 1013.2
20260508101204 47 179 1.7 4.3 0.00 0.00 0.00 71 1013.2
20260508101104 47 193 1.7 4.3 0.00 0.00 0.00 71 1013.2
20260508101004 47 195 1.7 4.3 0.00 0.00 0.00 71 1013.2
20260508100904 47 172 2.6 4.3 0.00 0.00 0.00 71 1013.2
20260508100804 47 212 2.6 4.3 0.00 0.00 0.00 71 1013.2
20260508100704 47 203 1.7 4.3 0.00 0.00 0.00 71 1013.2
20260508100604 47 211 2.6 4.3 0.00 0.00 0.00 71 1013.2
20260508100504 47 205 2.6 4.3 0.00 0.00 0.00 71 1013.2
20260508100404 47 236 2.6 4.3 0.00 0.00 0.00 71 1013.2
20260508100304 47 210 2.6 5.2 0.00 0.00 0.00 71 1013.2
20260508100204 47 180 3.5 5.2 0.00 0.00 0.00 71 1013.2
20260508100104 47 204 2.6 5.2 0.00 0.00 0.00 71 1013.2
20260508100004 47 205 1.7 5.2 0.00 0.00 0.00 70 1013.2
20260508095904 47 215 1.7 5.2 0.00 0.00 0.00 70 1013.2
20260508095804 47 207 0.9 5.2 0.00 0.00 0.00 70 1013.2
20260508095704 47 253 0.9 6.1 0.00 0.00 0.00 70 1013.2
20260508095604 47 167 0.9 6.1 0.00 0.00 0.00 70 1013.2
20260508095504 47 205 3.5 6.1 0.00 0.00 0.00 70 1013.2
20260508095404 47 246 3.5 6.1 0.00 0.00 0.00 70 1013.2
20260508095306 47 208 2.6 6.1 0.00 0.00 0.00 70 1012.9
20260508095204 47 190 3.5 6.1 0.00 0.00 0.00 70 1012.9
20260508095104 47 198 3.5 6.1 0.00 0.00 0.00 70 1012.9
20260508095004 47 224 3.5 6.1 0.00 0.00 0.00 70 1013.2
20260508094904 47 200 3.5 6.1 0.00 0.00 0.00 71 1013.2
20260508094804 47 198 4.3 6.1 0.00 0.00 0.00 71 1013.2
20260508094704 47 207 1.7 4.3 0.00 0.00 0.00 71 1013.2
20260508094604 47 179 2.6 4.3 0.00 0.00 0.00 71 1013.2
20260508094504 47 156 2.6 4.3 0.00 0.00 0.00 71 1013.2
20260508094404 47 225 2.6 4.3 0.00 0.00 0.00 71 1013.2
20260508094304 47 183 3.5 4.3 0.00 0.00 0.00 71 1013.2
20260508094204 47 207 2.6 4.3 0.00 0.00 0.00 71 1013.2
20260508094104 47 207 2.6 4.3 0.00 0.00 0.00 71 1013.2
20260508094004 47 207 1.7 4.3 0.00 0.00 0.00 70 1013.2
20260508093904 47 201 1.7 4.3 0.00 0.00 0.00 70 1013.2
20260508093804 47 229 0.0 4.3 0.00 0.00 0.00 70 1013.2
20260508093704 48 224 0.0 4.3 0.00 0.00 0.00 70 1013.2
20260508093604 48 224 0.9 4.3 0.00 0.00 0.00 70 1013.2
20260508093504 47 228 1.7 4.3 0.00 0.00 0.00 70 1013.2
20260508093404 47 231 3.5 4.3 0.00 0.00 0.00 70 1013.2
20260508093304 47 183 3.5 4.3 0.00 0.00 0.00 70 1013.2
20260508093204 47 217 2.6 4.3 0.00 0.00 0.00 70 1013.2
20260508093104 47 184 3.5 4.3 0.00 0.00 0.00 70 1013.2
20260508093004 47 208 3.5 4.3 0.00 0.00 0.00 70 1013.2
20260508092904 47 201 3.5 4.3 0.00 0.00 0.00 70 1013.2
20260508092804 48 200 2.6 4.3 0.00 0.00 0.00 70 1013.2
20260508092704 48 155 1.7 3.5 0.00 0.00 0.00 70 1013.2
20260508092604 48 200 1.7 3.5 0.00 0.00 0.00 70 1013.2
20260508092504 48 221 1.7 3.5 0.00 0.00 0.00 70 1013.2
20260508092404 48 215 0.9 4.3 0.00 0.00 0.00 69 1013.2
20260508092312 48 135 0.9 4.3 0.00 0.00 0.00 69 1013.2
20260508092204 48 207 1.7 5.2 0.00 0.00 0.00 69 1013.2
20260508092104 48 139 1.7 5.2 0.00 0.00 0.00 69 1013.2
20260508092004 48 114 0.9 5.2 0.00 0.00 0.00 69 1013.2
20260508091904 48 204 0.0 5.2 0.00 0.00 0.00 69 1013.2
20260508091804 48 218 0.9 5.2 0.00 0.00 0.00 69 1013.2
20260508091704 48 143 0.9 5.2 0.00 0.00 0.00 69 1012.9
20260508091604 48 215 1.7 5.2 0.00 0.00 0.00 69 1012.9
20260508091504 48 187 2.6 5.2 0.00 0.00 0.00 69 1012.9
20260508091404 48 203 2.6 5.2 0.00 0.00 0.00 69 1012.9
20260508091304 48 211 2.6 5.2 0.00 0.00 0.00 69 1013.2
20260508091204 48 181 1.7 4.3 0.00 0.00 0.00 69 1012.9
20260508091104 48 205 2.6 4.3 0.00 0.00 0.00 69 1012.9
20260508091004 48 264 2.6 4.3 0.00 0.00 0.00 69 1012.9
20260508090904 48 203 2.6 4.3 0.00 0.00 0.00 69 1013.2
20260508090804 48 197 1.7 4.3 0.00 0.00 0.00 69 1012.9
20260508090704 48 187 1.7 4.3 0.00 0.00 0.00 69 1013.2
20260508090604 48 260 2.6 4.3 0.00 0.00 0.00 69 1013.2
20260508090504 48 211 1.7 4.3 0.00 0.00 0.00 69 1013.2
20260508090404 48 211 3.5 4.3 0.00 0.00 0.00 69 1013.2
20260508090304 48 203 1.7 4.3 0.00 0.00 0.00 69 1013.2
20260508090204 48 197 1.7 4.3 0.00 0.00 0.00 69 1012.9
20260508090104 48 238 1.7 4.3 0.00 0.00 0.00 69 1012.9
20260508090004 48 177 1.7 4.3 0.00 0.00 0.00 69 1013.2
20260508085904 48 215 1.7 4.3 0.00 0.00 0.00 69 1013.2
20260508085804 48 198 2.6 4.3 0.00 0.00 0.00 69 1013.2
20260508085704 48 156 1.7 5.2 0.00 0.00 0.00 68 1013.2
20260508085604 48 169 2.6 5.2 0.00 0.00 0.00 68 1013.2
20260508085504 48 191 2.6 5.2 0.00 0.00 0.00 68 1013.2
20260508085404 48 236 2.6 5.2 0.00 0.00 0.00 68 1013.2
20260508085306 48 239 1.7 5.2 0.00 0.00 0.00 68 1012.9
20260508085204 48 236 1.7 5.2 0.00 0.00 0.00 68 1013.2
20260508085104 48 211 0.9 5.2 0.00 0.00 0.00 68 1013.2
20260508085004 48 158 1.7 5.2 0.00 0.00 0.00 68 1013.2
20260508084904 48 198 1.7 5.2 0.00 0.00 0.00 68 1013.2
20260508084804 48 195 2.6 5.2 0.00 0.00 0.00 68 1013.2
20260508084704 48 165 0.0 6.1 0.00 0.00 0.00 68 1012.9
20260508084604 48 165 0.9 6.1 0.00 0.00 0.00 68 1013.2
20260508084504 48 131 0.0 6.1 0.00 0.00 0.00 67 1013.2
20260508084404 48 131 1.7 6.1 0.00 0.00 0.00 68 1013.2
20260508084304 48 172 0.9 6.1 0.00 0.00 0.00 67 1013.2
20260508084204 48 96 0.0 6.1 0.00 0.00 0.00 68 1013.2
20260508084104 48 86 1.7 6.1 0.00 0.00 0.00 68 1013.2
20260508084004 48 211 1.7 6.1 0.00 0.00 0.00 68 1013.2
20260508083904 48 200 1.7 6.1 0.00 0.00 0.00 68 1013.2
20260508083804 48 236 4.3 6.1 0.00 0.00 0.00 67 1013.2
20260508083704 48 188 3.5 5.2 0.00 0.00 0.00 67 1013.2
20260508083604 48 188 2.6 5.2 0.00 0.00 0.00 67 1013.2
20260508083504 48 191 2.6 5.2 0.00 0.00 0.00 67 1013.2
20260508083404 48 179 2.6 5.2 0.00 0.00 0.00 67 1013.2
20260508083304 48 229 2.6 5.2 0.00 0.00 0.00 67 1013.2
20260508083204 48 159 1.7 5.2 0.00 0.00 0.00 67 1013.2
20260508083104 49 195 1.7 5.2 0.00 0.00 0.00 67 1013.2
20260508083004 48 207 2.6 5.2 0.00 0.00 0.00 67 1013.2
20260508082904 49 165 2.6 5.2 0.00 0.00 0.00 67 1013.2
20260508082804 48 173 3.5 5.2 0.00 0.00 0.00 67 1013.2
20260508082704 49 194 1.7 7.0 0.00 0.00 0.00 67 1013.2
20260508082604 49 219 1.7 7.0 0.00 0.00 0.00 67 1013.2
20260508082504 49 218 2.6 7.0 0.00 0.00 0.00 67 1013.2
20260508082404 49 243 2.6 7.0 0.00 0.00 0.00 67 1013.2
20260508082306 49 204 3.5 7.0 0.00 0.00 0.00 67 1013.2
20260508082204 49 188 2.6 7.0 0.00 0.00 0.00 67 1013.2
20260508082104 49 249 2.6 7.0 0.00 0.00 0.00 67 1013.2
20260508082004 49 255 2.6 7.0 0.00 0.00 0.00 67 1013.2
20260508081904 49 204 2.6 7.0 0.00 0.00 0.00 67 1013.2
20260508081804 48 229 4.3 7.0 0.00 0.00 0.00 67 1013.2
20260508081704 49 187 3.5 5.2 0.00 0.00 0.00 67 1013.2
20260508081604 49 203 3.5 6.1 0.00 0.00 0.00 67 1013.2
20260508081504 49 195 2.6 6.1 0.00 0.00 0.00 67 1013.2
20260508081404 49 197 3.5 6.1 0.00 0.00 0.00 67 1013.2
20260508081304 49 197 1.7 7.0 0.00 0.00 0.00 67 1013.2
20260508081204 49 208 2.6 7.0 0.00 0.00 0.00 67 1013.2
20260508081104 49 314 1.7 7.0 0.00 0.00 0.00 67 1013.2
20260508081004 49 183 2.6 7.0 0.00 0.00 0.00 67 1013.2
20260508080904 49 198 2.6 7.0 0.00 0.00 0.00 66 1013.2
20260508080804 49 210 2.6 7.0 0.00 0.00 0.00 67 1013.2
20260508080704 49 190 2.6 7.0 0.00 0.00 0.00 66 1013.2
20260508080604 49 246 2.6 7.0 0.00 0.00 0.00 66 1013.2
20260508080504 49 183 2.6 7.0 0.00 0.00 0.00 66 1013.2
20260508080404 49 218 3.5 7.0 0.00 0.00 0.00 66 1013.2
20260508080304 49 233 0.9 4.3 0.00 0.00 0.00 66 1013.2
20260508080204 49 197 1.7 4.3 0.00 0.00 0.00 66 1013.2
20260508080104 49 198 2.6 5.2 0.00 0.00 0.00 66 1013.2
20260508080004 49 198 1.7 5.2 0.00 0.00 0.00 66 1013.2
20260508075904 49 162 0.9 5.2 0.00 0.00 0.00 66 1013.2
20260508075804 49 257 0.0 5.2 0.00 0.00 0.00 66 1013.2
20260508075704 49 257 0.0 5.2 0.00 0.00 0.00 66 1013.2
20260508075604 49 257 0.0 5.2 0.00 0.00 0.00 66 1013.2
20260508075504 49 257 0.0 5.2 0.00 0.00 0.00 66 1013.2
20260508075404 49 257 1.7 5.2 0.00 0.00 0.00 66 1013.2
20260508075308 49 214 0.9 5.2 0.00 0.00 0.00 66 1013.2
20260508075204 49 165 3.5 5.2 0.00 0.00 0.00 66 1013.2
20260508075104 49 246 1.7 5.2 0.00 0.00 0.00 66 1013.2
20260508075004 49 97 0.0 5.2 0.00 0.00 0.00 66 1013.2
20260508074904 49 97 0.0 5.2 0.00 0.00 0.00 66 1013.2
20260508074804 49 97 0.9 5.2 0.00 0.00 0.00 66 1013.2
20260508074704 49 190 1.7 5.2 0.00 0.00 0.00 66 1013.2
20260508074604 49 179 0.9 5.2 0.00 0.00 0.00 66 1013.2
20260508074504 49 222 0.9 5.2 0.00 0.00 0.00 65 1013.2
20260508074404 49 208 0.9 5.2 0.00 0.00 0.00 65 1013.2
20260508074304 49 180 2.6 5.2 0.00 0.00 0.00 65 1013.2
20260508074204 49 239 2.6 5.2 0.00 0.00 0.00 66 1013.2
20260508074104 49 155 0.0 5.2 0.00 0.00 0.00 65 1013.2
20260508074004 49 172 2.6 5.2 0.00 0.00 0.00 65 1013.2
20260508073904 49 208 1.7 5.2 0.00 0.00 0.00 66 1013.2
20260508073804 49 155 1.7 6.1 0.00 0.00 0.00 65 1013.2
20260508073704 49 203 0.0 6.1 0.00 0.00 0.00 66 1013.2
20260508073604 50 233 0.9 6.1 0.00 0.00 0.00 65 1013.2
20260508073504 49 232 1.7 6.1 0.00 0.00 0.00 66 1013.2
20260508073404 49 215 2.6 6.1 0.00 0.00 0.00 65 1013.2
20260508073304 50 225 1.7 6.1 0.00 0.00 0.00 66 1013.2
20260508073204 49 184 1.7 6.1 0.00 0.00 0.00 66 1013.2
20260508073104 50 201 2.6 6.1 0.00 0.00 0.00 66 1013.2
20260508073004 50 221 2.6 6.1 0.00 0.00 0.00 66 1013.2
20260508072904 49 207 3.5 6.1 0.00 0.00 0.00 66 1013.2
20260508072804 50 176 1.7 5.2 0.00 0.00 0.00 66 1013.2
20260508072704 50 243 1.7 5.2 0.00 0.00 0.00 66 1013.2
20260508072604 50 188 2.6 5.2 0.00 0.00 0.00 65 1013.2
20260508072504 50 183 2.6 5.2 0.00 0.00 0.00 66 1013.2
20260508072404 50 165 2.6 5.2 0.00 0.00 0.00 65 1013.2
20260508072307 50 208 1.7 4.3 0.00 0.00 0.00 65 1013.2
20260508072204 50 163 1.7 5.2 0.00 0.00 0.00 65 1013.2
20260508072104 50 221 1.7 5.2 0.00 0.00 0.00 65 1013.2
20260508072004 50 198 2.6 5.2 0.00 0.00 0.00 65 1013.2
20260508071904 50 218 1.7 5.2 0.00 0.00 0.00 65 1013.2
20260508071804 50 181 2.6 5.2 0.00 0.00 0.00 65 1013.2
20260508071704 50 211 2.6 5.2 0.00 0.00 0.00 65 1013.2
20260508071604 50 176 1.7 5.2 0.00 0.00 0.00 65 1013.2
20260508071504 50 219 2.6 5.2 0.00 0.00 0.00 65 1013.6
20260508071404 50 204 2.6 5.2 0.00 0.00 0.00 65 1013.2
20260508071304 50 193 2.6 5.2 0.00 0.00 0.00 65 1013.2
20260508071204 50 231 2.6 5.2 0.00 0.00 0.00 65 1013.6
20260508071104 50 184 1.7 5.2 0.00 0.00 0.00 65 1013.6
20260508071004 50 197 1.7 5.2 0.00 0.00 0.00 64 1013.6
20260508070904 50 184 1.7 5.2 0.00 0.00 0.00 64 1013.6
20260508070804 50 153 2.6 5.2 0.00 0.00 0.00 64 1013.6
20260508070704 50 217 2.6 5.2 0.00 0.00 0.00 64 1013.6
20260508070604 50 181 1.7 6.1 0.00 0.00 0.00 64 1013.6
20260508070504 50 194 3.5 6.1 0.00 0.00 0.00 64 1013.6
20260508070404 50 231 1.7 6.1 0.00 0.00 0.00 64 1013.6
20260508070304 50 184 0.9 6.1 0.00 0.00 0.00 64 1013.6
20260508070204 50 205 2.6 6.1 0.00 0.00 0.00 64 1013.6
20260508070104 50 328 2.6 6.1 0.00 0.00 0.00 64 1013.6
20260508070004 50 174 0.9 6.1 0.00 0.00 0.00 63 1013.6
20260508065904 50 217 2.6 6.1 0.00 0.00 0.00 63 1013.6
20260508065804 50 194 2.6 6.1 0.00 0.00 0.00 64 1013.6
20260508065704 51 222 1.7 6.1 0.00 0.00 0.00 64 1013.6
20260508065604 51 179 2.6 6.1 0.00 0.00 0.00 63 1013.6
20260508065504 51 162 1.7 6.1 0.00 0.00 0.00 63 1013.6
20260508065404 51 174 0.9 6.1 0.00 0.00 0.00 63 1013.6
20260508065306 51 200 1.7 6.1 0.00 0.00 0.00 63 1013.6
20260508065204 51 225 0.9 6.1 0.00 0.00 0.00 63 1013.6
20260508065104 51 205 3.5 6.1 0.00 0.00 0.00 63 1013.6
20260508065004 51 201 3.5 6.1 0.00 0.00 0.00 63 1013.6
20260508064904 51 229 3.5 6.1 0.00 0.00 0.00 63 1013.6
20260508064804 51 200 2.6 6.1 0.00 0.00 0.00 63 1013.6
20260508064704 51 208 3.5 6.1 0.00 0.00 0.00 63 1013.6
20260508064604 51 169 3.5 6.1 0.00 0.00 0.00 63 1013.6
20260508064504 51 215 4.3 6.1 0.00 0.00 0.00 62 1013.6
20260508064404 51 188 4.3 6.1 0.00 0.00 0.00 62 1013.6
20260508064304 51 211 1.7 6.1 0.00 0.00 0.00 63 1013.6
20260508064204 51 259 3.5 6.1 0.00 0.00 0.00 62 1013.6
20260508064104 51 198 3.5 6.1 0.00 0.00 0.00 62 1013.6
20260508064004 51 219 3.5 6.1 0.00 0.00 0.00 62 1013.6
20260508063904 51 188 3.5 6.1 0.00 0.00 0.00 62 1013.6
20260508063804 51 208 3.5 5.2 0.00 0.00 0.00 62 1013.6
20260508063704 51 211 3.5 5.2 0.00 0.00 0.00 62 1013.6
20260508063604 51 208 2.6 5.2 0.00 0.00 0.00 62 1013.6
20260508063504 51 208 1.7 5.2 0.00 0.00 0.00 62 1013.6
20260508063404 51 205 2.6 6.1 0.00 0.00 0.00 62 1013.6
20260508063304 51 186 1.7 6.1 0.00 0.00 0.00 62 1013.6
20260508063204 51 162 2.6 6.1 0.00 0.00 0.00 61 1013.6
20260508063104 51 173 2.6 6.1 0.00 0.00 0.00 61 1013.6
20260508063004 51 190 1.7 6.1 0.00 0.00 0.00 61 1013.6
20260508062904 51 190 1.7 6.1 0.00 0.00 0.00 61 1013.6
20260508062804 51 198 2.6 6.1 0.00 0.00 0.00 61 1013.6
20260508062704 51 191 2.6 6.1 0.00 0.00 0.00 61 1013.6
20260508062604 51 232 3.5 6.1 0.00 0.00 0.00 61 1013.6
20260508062504 52 198 3.5 6.1 0.00 0.00 0.00 61 1013.6
20260508062404 52 170 4.3 6.1 0.00 0.00 0.00 60 1013.6
20260508062306 52 204 1.7 6.1 0.00 0.00 0.00 61 1013.6
20260508062204 52 270 1.7 6.1 0.00 0.00 0.00 60 1013.6
20260508062104 52 135 0.0 6.1 0.00 0.00 0.00 60 1013.6
20260508062004 52 135 1.7 7.0 0.00 0.00 0.00 60 1013.6
20260508061904 52 205 3.5 7.0 0.00 0.00 0.00 59 1013.6
20260508061804 52 252 2.6 7.0 0.00 0.00 0.00 59 1013.6
20260508061704 52 160 1.7 7.0 0.00 0.00 0.00 59 1013.6
20260508061604 52 181 3.5 7.0 0.00 0.00 0.00 59 1013.6
20260508061504 52 215 4.3 7.0 0.00 0.00 0.00 59 1013.6
20260508061404 52 193 3.5 7.0 0.00 0.00 0.00 59 1013.6
20260508061304 52 194 2.6 7.0 0.00 0.00 0.00 59 1013.6
20260508061204 52 177 1.7 7.0 0.00 0.00 0.00 59 1013.6
20260508061104 52 224 3.5 7.0 0.00 0.00 0.00 58 1013.6
20260508061004 52 219 3.5 5.2 0.00 0.00 0.00 58 1013.6
20260508060904 52 195 3.5 5.2 0.00 0.00 0.00 58 1013.6
20260508060804 53 180 0.9 5.2 0.00 0.00 0.00 58 1013.6
20260508060704 53 163 2.6 5.2 0.00 0.00 0.00 57 1013.6
20260508060604 53 179 2.6 8.7 0.00 0.00 0.00 57 1013.6
20260508060504 53 177 1.7 8.7 0.00 0.00 0.00 57 1013.6
20260508060404 53 208 3.5 8.7 0.00 0.00 0.00 57 1013.6
20260508060304 53 181 2.6 8.7 0.00 0.00 0.00 56 1013.6
20260508060204 53 205 3.5 8.7 0.00 0.00 0.00 56 1013.6
20260508060104 53 148 1.7 8.7 0.00 0.00 0.00 56 1013.6
20260508060004 53 169 1.7 8.7 0.00 0.00 0.00 56 1013.6
20260508055904 53 190 1.7 8.7 0.00 0.00 0.00 56 1013.6
20260508055804 53 270 2.6 8.7 0.00 0.00 0.00 56 1013.6
20260508055704 53 246 3.5 8.7 0.00 0.00 0.00 55 1013.6
20260508055604 53 162 1.7 7.8 0.00 0.00 0.00 55 1013.6
20260508055504 53 215 1.7 7.8 0.00 0.00 0.00 55 1013.6
20260508055404 53 143 1.7 7.8 0.00 0.00 0.00 55 1013.6
20260508055306 53 269 0.9 7.8 0.00 0.00 0.00 55 1013.6
20260508055204 53 249 3.5 7.8 0.00 0.00 0.00 55 1013.6
20260508055104 53 217 2.6 7.8 0.00 0.00 0.00 56 1013.6
20260508055004 53 205 3.5 7.8 0.00 0.00 0.00 55 1013.6
20260508054904 53 187 1.7 7.8 0.00 0.00 0.00 56 1013.6
20260508054804 53 257 3.5 7.8 0.00 0.00 0.00 56 1013.6
20260508054704 53 235 2.6 7.8 0.00 0.00 0.00 56 1013.6
20260508054604 53 3 0.9 7.8 0.00 0.00 0.00 57 1013.6
20260508054504 53 124 0.0 7.8 0.00 0.00 0.00 56 1013.6
20260508054404 53 208 3.5 7.8 0.00 0.00 0.00 56 1013.6
20260508054304 53 211 2.6 7.8 0.00 0.00 0.00 57 1013.6
20260508054204 53 248 2.6 5.2 0.00 0.00 0.00 57 1013.6
20260508054104 53 229 0.9 7.0 0.00 0.00 0.00 57 1013.6
20260508054004 53 155 0.0 7.8 0.00 0.00 0.00 58 1013.6
20260508053904 53 155 0.0 7.8 0.00 0.00 0.00 58 1013.6
20260508053804 53 155 0.0 7.8 0.00 0.00 0.00 58 1013.6
20260508053704 53 155 0.0 7.8 0.00 0.00 0.00 58 1013.6
20260508053604 53 155 0.0 7.8 0.00 0.00 0.00 58 1013.6
20260508053504 53 155 0.0 7.8 0.00 0.00 0.00 58 1013.6
20260508053404 53 221 2.6 7.8 0.00 0.00 0.00 57 1013.6
20260508053304 53 215 3.5 7.8 0.00 0.00 0.00 57 1013.6
20260508053204 53 194 4.3 7.8 0.00 0.00 0.00 58 1013.6
20260508053104 53 242 6.1 7.8 0.00 0.00 0.00 58 1013.6
20260508053004 53 187 6.1 9.6 0.00 0.00 0.00 58 1013.6
20260508052904 53 188 3.5 11.3 0.00 0.00 0.00 57 1013.9
20260508052804 53 191 4.3 13.0 0.00 0.00 0.00 57 1013.9
20260508052704 53 203 4.3 13.0 0.00 0.00 0.00 57 1013.9
20260508052604 53 197 4.3 13.0 0.00 0.00 0.00 57 1013.9
20260508052504 54 191 0.9 13.0 0.00 0.00 0.00 57 1013.9
20260508052404 54 270 2.6 13.0 0.00 0.00 0.00 56 1013.9
20260508052306 53 135 1.7 13.0 0.00 0.00 0.00 56 1013.9
20260508052204 53 297 1.7 13.0 0.00 0.00 0.00 57 1013.9
20260508052104 53 203 3.5 13.0 0.00 0.00 0.00 56 1013.6
20260508052004 53 212 7.8 13.0 0.00 0.00 0.00 56 1013.6
20260508051904 53 169 6.1 13.0 0.00 0.00 0.00 57 1013.9
20260508051804 53 242 2.6 12.2 0.00 0.00 0.00 57 1013.6
20260508051704 53 274 2.6 13.9 0.00 0.00 0.00 57 1013.6
20260508051604 53 169 7.0 15.6 0.00 0.00 0.00 56 1013.6
20260508051504 53 169 6.1 15.6 0.00 0.00 0.00 55 1013.6
20260508051404 53 224 4.3 15.6 0.00 0.00 0.00 55 1013.6
20260508051304 53 211 5.2 15.6 0.00 0.00 0.00 54 1013.6
20260508051204 53 186 5.2 15.6 0.00 0.00 0.00 53 1013.9
20260508051104 52 181 7.0 15.6 0.00 0.00 0.00 64 1014.3
20260508051004 52 236 3.5 15.6 0.00 0.00 0.00 64 1014.6
20260508050904 52 262 6.1 15.6 0.00 0.00 0.00 65 1014.6
20260508050804 51 336 9.6 15.6 0.00 0.00 0.00 67 1014.6
20260508050704 51 325 8.7 15.6 0.00 0.00 0.00 67 1014.6
20260508050604 52 342 5.2 13.0 0.00 0.00 0.00 65 1014.6
20260508050504 52 350 7.8 13.0 0.00 0.00 0.00 65 1014.6
20260508050404 52 342 9.6 13.0 0.00 0.00 0.00 64 1014.3
20260508050304 52 345 7.8 10.4 0.00 0.00 0.00 62 1014.3
20260508050204 52 342 7.0 7.8 0.00 0.00 0.00 63 1014.3
20260508050104 52 340 5.2 7.8 0.00 0.00 0.00 63 1013.9
20260508050004 52 322 1.7 7.8 0.00 0.00 0.00 62 1013.9
20260508045904 53 167 0.0 7.8 0.00 0.00 0.00 62 1013.6
20260508045804 53 167 0.9 7.8 0.00 0.00 0.00 62 1013.6
20260508045704 52 200 1.7 7.8 0.00 0.00 0.00 62 1013.6
20260508045604 52 195 3.5 7.8 0.00 0.00 0.00 62 1013.6
20260508045504 52 179 5.2 7.8 0.00 0.00 0.00 62 1013.6
20260508045404 52 184 4.3 7.8 0.00 0.00 0.00 62 1013.6
20260508045306 52 204 3.5 7.8 0.00 0.00 0.00 63 1013.6
20260508045204 52 174 5.2 7.8 0.00 0.00 0.00 62 1013.6
20260508045104 52 186 3.5 7.8 0.00 0.00 0.00 63 1013.6
20260508045004 52 180 5.2 7.8 0.00 0.00 0.00 64 1013.6
20260508044904 52 214 3.5 7.8 0.00 0.00 0.00 64 1013.6
20260508044804 52 186 3.5 7.8 0.00 0.00 0.00 64 1013.6
20260508044704 52 212 2.6 7.8 0.00 0.00 0.00 64 1013.6
20260508044604 52 174 3.5 7.8 0.00 0.00 0.00 64 1013.6
20260508044504 52 183 2.6 7.8 0.00 0.00 0.00 64 1013.6
20260508044404 52 224 4.3 7.8 0.00 0.00 0.00 64 1013.6
20260508044304 52 218 5.2 7.8 0.00 0.00 0.00 64 1013.6
20260508044204 52 198 3.5 7.8 0.00 0.00 0.00 65 1013.6
20260508044104 52 160 3.5 7.8 0.00 0.00 0.00 65 1013.6
20260508044004 52 136 0.9 4.3 0.00 0.00 0.00 67 1013.6
20260508043904 52 179 2.6 4.3 0.00 0.00 0.00 67 1013.6
20260508043804 52 204 2.6 4.3 0.00 0.00 0.00 67 1013.6
20260508043704 52 128 1.7 4.3 0.00 0.00 0.00 67 1013.6
20260508043604 52 169 2.6 4.3 0.00 0.00 0.00 67 1013.6
20260508043504 52 139 0.0 4.3 0.00 0.00 0.00 67 1013.6
20260508043404 52 139 0.9 4.3 0.00 0.00 0.00 67 1013.6
20260508043304 51 165 2.6 4.3 0.00 0.00 0.00 67 1013.6
20260508043204 52 118 0.0 4.3 0.00 0.00 0.00 67 1013.6
20260508043104 52 118 0.9 4.3 0.00 0.00 0.00 67 1013.6
20260508043004 51 169 1.7 4.3 0.00 0.00 0.00 67 1013.6
20260508042904 51 163 2.6 4.3 0.00 0.00 0.00 67 1013.6
20260508042804 51 162 2.6 4.3 0.00 0.00 0.00 68 1013.2
20260508042704 51 149 1.7 4.3 0.00 0.00 0.00 68 1013.2
20260508042604 51 165 3.5 4.3 0.00 0.00 0.00 68 1013.2
20260508042504 51 166 2.6 4.3 0.00 0.00 0.00 68 1013.2
20260508042404 51 115 1.7 3.5 0.00 0.00 0.00 68 1013.6
20260508042307 51 156 1.7 4.3 0.00 0.00 0.00 68 1013.2
20260508042204 51 163 1.7 4.3 0.00 0.00 0.00 68 1013.2
20260508042104 51 186 0.9 4.3 0.00 0.00 0.00 68 1013.2
20260508042004 51 142 1.7 4.3 0.00 0.00 0.00 67 1013.6
20260508041904 51 163 0.0 4.3 0.00 0.00 0.00 67 1013.2
20260508041804 51 163 0.0 4.3 0.00 0.00 0.00 67 1013.2
20260508041704 51 163 1.7 4.3 0.00 0.00 0.00 67 1013.2
20260508041604 51 215 2.6 4.3 0.00 0.00 0.00 67 1013.2
20260508041504 51 117 2.6 4.3 0.00 0.00 0.00 67 1013.2
20260508041404 51 160 3.5 4.3 0.00 0.00 0.00 67 1013.2
20260508041304 51 142 2.6 3.5 0.00 0.00 0.00 67 1013.6
20260508041204 51 169 2.6 3.5 0.00 0.00 0.00 67 1013.6
20260508041104 51 156 1.7 3.5 0.00 0.00 0.00 67 1013.6
20260508041004 51 207 0.9 3.5 0.00 0.00 0.00 67 1013.6
20260508040904 51 181 1.7 3.5 0.00 0.00 0.00 67 1013.6
20260508040804 51 208 0.9 3.5 0.00 0.00 0.00 67 1013.6
20260508040704 51 146 1.7 3.5 0.00 0.00 0.00 67 1013.6
20260508040604 51 132 1.7 3.5 0.00 0.00 0.00 67 1013.6
20260508040504 51 141 0.9 3.5 0.00 0.00 0.00 67 1013.6
20260508040404 51 187 2.6 3.5 0.00 0.00 0.00 68 1013.6
20260508040304 51 128 2.6 3.5 0.00 0.00 0.00 68 1013.6
20260508040204 51 153 2.6 3.5 0.00 0.00 0.00 68 1013.6
20260508040104 51 155 2.6 3.5 0.00 0.00 0.00 68 1013.6
20260508040004 51 155 2.6 3.5 0.00 0.00 0.00 68 1013.6
20260508035904 51 150 1.7 3.5 0.00 0.06 0.00 68 1013.6
20260508035804 51 142 3.5 3.5 0.00 0.06 0.00 68 1013.6
20260508035704 51 163 1.7 2.6 0.00 0.06 0.00 68 1013.6
20260508035604 51 142 0.9 2.6 0.00 0.06 0.00 68 1013.6
20260508035504 51 155 0.0 2.6 0.00 0.06 0.00 68 1013.6
20260508035404 51 155 0.0 2.6 0.00 0.06 0.00 68 1013.6
20260508035306 51 155 0.0 2.6 0.00 0.06 0.00 68 1013.6
20260508035204 52 155 0.9 2.6 0.00 0.06 0.00 68 1013.6
20260508035104 52 158 1.7 2.6 0.00 0.06 0.00 68 1013.6
20260508035004 52 139 0.0 0.0 0.00 0.06 0.00 68 1013.6
20260508034904 52 139 0.0 0.0 0.00 0.06 0.00 68 1013.6
20260508034804 52 139 0.0 0.0 0.00 0.06 0.00 67 1013.6
20260508034704 52 139 0.0 0.0 0.00 0.06 0.00 67 1013.6
20260508034604 52 139 0.0 0.0 0.00 0.06 0.00 67 1013.6
20260508034504 52 139 0.0 0.0 0.00 0.06 0.00 67 1013.6
20260508034404 52 139 0.0 0.0 0.00 0.06 0.00 67 1013.6
20260508034304 52 139 0.0 0.0 0.00 0.06 0.00 67 1013.6
20260508034204 52 139 0.0 0.0 0.00 0.06 0.00 67 1013.6
20260508034104 52 139 0.0 0.9 0.00 0.06 0.00 67 1013.6
20260508034004 52 139 0.0 0.9 0.00 0.06 0.00 67 1013.6
20260508033904 52 139 0.0 1.7 0.00 0.06 0.00 67 1013.6
20260508033804 52 139 0.0 1.7 0.00 0.06 0.00 66 1013.6
20260508033704 52 139 0.0 3.5 0.00 0.06 0.00 66 1013.6
20260508033604 52 139 0.0 3.5 0.00 0.06 0.00 66 1013.6
20260508033504 52 139 0.0 3.5 0.00 0.06 0.00 66 1013.6
20260508033404 52 139 0.0 3.5 0.00 0.06 0.00 65 1013.6
20260508033304 52 139 0.0 3.5 0.00 0.06 0.00 65 1013.6
20260508033204 52 139 0.0 3.5 0.00 0.06 0.00 65 1013.6
20260508033104 52 160 0.9 3.5 0.00 0.06 0.00 65 1013.6
20260508033004 52 131 0.9 3.5 0.00 0.06 0.00 65 1013.6
20260508032904 52 174 0.9 3.5 0.00 0.06 0.00 65 1013.6
20260508032804 52 184 2.6 3.5 0.00 0.06 0.00 65 1013.6
20260508032704 52 194 0.9 2.6 0.00 0.06 0.00 65 1013.6
20260508032604 52 162 2.6 2.6 0.00 0.06 0.00 65 1013.6
20260508032504 52 180 1.7 2.6 0.00 0.06 0.00 65 1013.6
20260508032404 52 160 2.6 2.6 0.00 0.06 0.00 66 1013.6
20260508032306 52 155 0.9 2.6 0.00 0.06 0.00 66 1013.6
20260508032204 52 153 0.0 1.7 0.00 0.06 0.00 66 1013.6
20260508032104 52 153 0.0 1.7 0.00 0.06 0.00 66 1013.6
20260508032004 52 153 0.9 1.7 0.00 0.06 0.00 66 1013.6
20260508031904 52 183 0.9 2.6 0.00 0.06 0.00 66 1013.6
20260508031804 52 156 0.9 4.3 0.00 0.06 0.00 66 1013.6
20260508031704 52 181 0.9 4.3 0.00 0.06 0.00 65 1013.6
20260508031604 52 155 0.9 4.3 0.00 0.06 0.00 65 1013.6
20260508031504 52 127 0.0 4.3 0.00 0.06 0.00 65 1013.6
20260508031404 52 127 0.0 4.3 0.00 0.06 0.00 64 1013.6
20260508031304 52 127 0.9 4.3 0.00 0.06 0.00 65 1013.6
20260508031204 52 174 0.9 4.3 0.00 0.06 0.00 65 1013.9
20260508031104 52 200 0.9 4.3 0.00 0.06 0.00 65 1013.6
20260508031004 52 212 1.7 4.3 0.00 0.06 0.00 64 1013.6
20260508030904 52 239 1.7 4.3 0.00 0.06 0.00 64 1013.9
20260508030804 52 163 0.0 0.0 0.00 0.06 0.00 64 1013.6
20260508030704 52 163 0.0 0.0 0.00 0.06 0.00 64 1013.6
20260508030604 52 163 0.0 1.7 0.00 0.06 0.00 64 1013.6
20260508030504 52 163 0.0 1.7 0.00 0.06 0.00 64 1013.9
20260508030404 52 163 0.0 1.7 0.00 0.06 0.00 64 1013.9
20260508030304 52 163 0.0 1.7 0.00 0.06 0.00 63 1013.9
20260508030204 52 163 0.0 1.7 0.00 0.06 0.00 63 1013.9
20260508030104 52 163 0.0 1.7 0.00 0.06 0.00 63 1013.9
20260508030004 52 163 0.0 1.7 0.00 0.06 0.00 63 1013.9
20260508025904 53 163 0.0 1.7 0.00 0.06 0.00 63 1013.9
20260508025804 53 134 0.0 1.7 0.00 0.06 0.00 63 1013.9
20260508025704 53 183 0.9 1.7 0.00 0.06 0.00 63 1013.9
20260508025604 53 283 0.0 1.7 0.00 0.06 0.00 63 1013.9
20260508025504 53 283 0.0 1.7 0.00 0.06 0.00 62 1013.9
20260508025404 53 283 0.0 1.7 0.00 0.06 0.00 62 1013.9
20260508025306 53 283 0.0 1.7 0.00 0.06 0.00 62 1013.9
20260508025204 53 297 0.9 1.7 0.00 0.06 0.00 62 1013.6
20260508025104 53 325 0.0 1.7 0.00 0.06 0.00 62 1013.9
20260508025004 53 325 0.0 1.7 0.00 0.06 0.00 62 1013.6
20260508024904 53 325 0.0 1.7 0.00 0.06 0.00 62 1013.9
20260508024804 53 325 0.0 1.7 0.00 0.06 0.00 62 1013.9
20260508024704 53 325 0.9 1.7 0.00 0.06 0.00 62 1013.6
20260508024604 53 122 0.0 0.0 0.00 0.06 0.00 62 1013.6
20260508024504 53 122 0.0 0.9 0.00 0.06 0.00 61 1013.6
20260508024404 53 122 0.0 1.7 0.00 0.06 0.00 61 1013.6
20260508024304 53 122 0.0 1.7 0.00 0.06 0.00 61 1013.6
20260508024204 53 122 0.0 1.7 0.00 0.06 0.00 61 1013.6
20260508024104 53 122 0.0 1.7 0.00 0.06 0.00 61 1013.6
20260508024004 53 122 0.0 3.5 0.00 0.06 0.00 61 1013.6
20260508023904 53 122 0.0 4.3 0.00 0.06 0.00 61 1013.6
20260508023804 53 122 0.0 4.3 0.00 0.06 0.00 60 1013.6
20260508023704 53 122 0.0 4.3 0.00 0.06 0.00 60 1013.6
20260508023604 53 122 0.0 4.3 0.00 0.06 0.00 59 1013.6
20260508023504 53 156 0.9 4.3 0.00 0.06 0.00 59 1013.6
20260508023404 53 214 0.0 4.3 0.00 0.06 0.00 59 1013.6
20260508023304 53 214 0.0 4.3 0.00 0.06 0.00 59 1013.6
20260508023204 53 267 0.0 4.3 0.00 0.06 0.00 59 1013.6
20260508023104 53 267 0.9 4.3 0.00 0.06 0.00 58 1013.6
20260508023004 53 293 0.9 4.3 0.00 0.06 0.00 59 1013.6
20260508022904 53 245 0.0 1.7 0.00 0.06 0.00 58 1013.6
20260508022804 53 245 0.0 1.7 0.00 0.06 0.00 58 1013.6
20260508022704 53 245 0.0 1.7 0.00 0.06 0.00 57 1013.6
20260508022604 53 245 0.0 1.7 0.00 0.06 0.00 57 1013.6
20260508022504 53 245 0.0 1.7 0.00 0.06 0.00 57 1013.6
20260508022404 53 245 0.0 1.7 0.00 0.06 0.00 57 1013.6
20260508022307 53 245 0.9 2.6 0.00 0.06 0.00 57 1013.6
20260508022204 53 212 0.9 3.5 0.00 0.06 0.00 57 1013.6
20260508022104 53 226 0.0 3.5 0.00 0.06 0.00 57 1013.6
20260508022004 53 240 0.0 3.5 0.00 0.06 0.00 57 1013.6
20260508021904 53 240 0.0 3.5 0.00 0.06 0.00 57 1013.6
20260508021804 53 240 0.0 3.5 0.00 0.06 0.00 57 1013.6
20260508021704 53 240 0.0 3.5 0.00 0.06 0.00 57 1013.6
20260508021604 53 240 0.0 3.5 0.00 0.06 0.00 57 1013.6
20260508021504 53 240 0.0 3.5 0.00 0.06 0.00 57 1013.6
20260508021404 53 240 0.9 3.5 0.00 0.06 0.00 56 1013.6
20260508021304 53 308 0.9 3.5 0.00 0.06 0.00 56 1013.6
20260508021204 53 257 0.0 0.9 0.00 0.06 0.00 56 1013.6
20260508021104 53 257 0.0 0.9 0.00 0.06 0.00 56 1013.6
20260508021004 53 257 0.0 0.9 0.00 0.06 0.00 56 1013.6
20260508020904 53 236 0.0 0.9 0.00 0.06 0.00 56 1013.6
20260508020804 53 236 0.0 1.7 0.00 0.06 0.00 56 1013.6
20260508020704 53 236 0.0 1.7 0.00 0.06 0.00 56 1013.6
20260508020604 54 236 0.0 1.7 0.00 0.06 0.00 56 1013.6
20260508020504 54 236 0.0 1.7 0.00 0.06 0.00 55 1013.6
20260508020404 54 236 0.0 1.7 0.00 0.06 0.00 55 1013.6
20260508020304 54 236 0.0 1.7 0.00 0.06 0.00 55 1013.6
20260508020204 54 236 0.0 1.7 0.00 0.06 0.00 55 1013.6
20260508020104 54 160 0.0 1.7 0.00 0.06 0.00 55 1013.6
20260508020004 54 160 0.0 1.7 0.00 0.06 0.00 55 1013.6
20260508015904 54 190 0.0 1.7 0.00 0.06 0.00 55 1013.6
20260508015804 54 273 0.0 0.0 0.00 0.06 0.00 55 1013.6
20260508015704 54 273 0.0 0.0 0.00 0.06 0.00 55 1013.6
20260508015604 54 273 0.0 0.0 0.00 0.06 0.00 55 1013.6
20260508015504 54 273 0.0 0.0 0.00 0.06 0.00 55 1013.6
20260508015404 54 273 0.0 0.0 0.00 0.06 0.00 55 1013.6
20260508015306 54 273 0.0 0.0 0.00 0.06 0.00 55 1013.6
20260508015204 54 273 0.0 0.9 0.00 0.06 0.00 55 1013.6
20260508015104 54 273 0.0 0.9 0.00 0.06 0.00 55 1013.6
20260508015004 54 273 0.0 0.9 0.00 0.06 0.00 55 1013.6
20260508014904 54 273 0.0 0.9 0.00 0.06 0.00 55 1013.6
20260508014804 54 273 0.0 2.6 0.00 0.06 0.00 55 1013.6
20260508014704 54 273 0.0 2.6 0.00 0.06 0.00 55 1013.6
20260508014604 54 273 0.0 2.6 0.00 0.06 0.00 55 1013.6
20260508014504 54 273 0.0 2.6 0.00 0.06 0.00 54 1013.6
20260508014404 54 273 0.0 2.6 0.00 0.06 0.00 54 1013.6
20260508014304 54 273 0.0 2.6 0.00 0.06 0.00 54 1013.6
20260508014204 54 210 0.0 2.6 0.00 0.06 0.00 54 1013.6
20260508014104 54 210 0.0 2.6 0.00 0.06 0.00 54 1013.6
20260508014004 54 210 0.0 2.6 0.00 0.06 0.00 54 1013.6
20260508013904 54 215 0.9 2.6 0.00 0.06 0.00 54 1013.6
20260508013804 54 34 0.9 2.6 0.00 0.06 0.00 54 1013.6
20260508013704 54 243 0.0 2.6 0.00 0.06 0.00 54 1013.6
20260508013604 54 243 0.0 2.6 0.00 0.06 0.00 53 1013.6
20260508013504 54 243 0.0 2.6 0.00 0.06 0.00 53 1013.6
20260508013404 54 243 0.0 3.5 0.00 0.06 0.00 53 1013.6
20260508013304 54 243 0.9 3.5 0.00 0.06 0.00 53 1013.6
20260508013204 54 246 1.7 3.5 0.00 0.06 0.00 53 1013.6
20260508013104 54 167 0.9 5.2 0.00 0.06 0.00 53 1013.6
20260508013004 54 235 0.0 7.0 0.00 0.06 0.00 53 1013.6
20260508012904 54 232 0.0 7.0 0.00 0.06 0.00 53 1013.6
20260508012804 54 101 0.0 7.0 0.00 0.06 0.00 53 1013.6
20260508012704 54 101 0.0 7.0 0.00 0.06 0.00 53 1013.6
20260508012604 54 101 0.0 7.0 0.00 0.06 0.00 53 1013.6
20260508012504 54 8 1.7 7.0 0.00 0.06 0.00 53 1013.6
20260508012404 54 232 1.7 7.0 0.00 0.06 0.00 53 1013.2
20260508012307 54 163 1.7 7.0 0.00 0.06 0.00 53 1013.2
20260508012204 54 240 2.6 7.0 0.00 0.06 0.00 53 1013.2
20260508012104 54 248 4.3 7.0 0.00 0.06 0.00 52 1013.2
20260508012004 54 184 0.9 7.0 0.00 0.06 0.00 54 1013.2
20260508011904 54 148 0.0 7.0 0.00 0.06 0.00 53 1013.2
20260508011804 54 166 1.7 7.0 0.00 0.06 0.00 53 1013.2
20260508011704 54 352 2.6 7.0 0.00 0.06 0.00 53 1013.2
20260508011604 54 203 1.7 7.0 0.00 0.06 0.00 53 1013.2
20260508011504 54 249 4.3 7.0 0.00 0.06 0.00 53 1013.2
20260508011404 54 200 2.6 5.2 0.00 0.06 0.00 53 1013.6
20260508011304 54 211 3.5 5.2 0.00 0.06 0.00 53 1013.6
20260508011204 54 183 0.9 5.2 0.00 0.06 0.00 54 1013.6
20260508011104 54 75 1.7 5.2 0.00 0.06 0.00 54 1013.6
20260508011004 54 222 0.0 3.5 0.00 0.06 0.00 53 1013.6
20260508010904 54 146 1.7 2.6 0.00 0.06 0.00 54 1013.6
20260508010804 54 221 0.0 2.6 0.00 0.06 0.00 53 1013.6
20260508010704 54 235 0.9 2.6 0.00 0.06 0.00 53 1013.6
20260508010604 54 253 0.9 2.6 0.00 0.06 0.00 53 1013.6
20260508010504 54 240 0.0 1.7 0.00 0.06 0.00 53 1013.6
20260508010404 54 256 0.9 1.7 0.00 0.06 0.00 53 1013.6
20260508010304 54 311 0.0 2.6 0.00 0.06 0.00 52 1013.6
20260508010204 54 311 0.0 2.6 0.00 0.06 0.00 52 1013.6
20260508010104 54 311 0.0 2.6 0.00 0.06 0.00 53 1013.6
20260508010004 54 311 0.9 2.6 0.00 0.06 0.00 52 1013.6
20260508005904 54 302 0.0 2.6 0.00 0.06 0.00 52 1013.6
20260508005804 54 253 0.0 3.5 0.00 0.06 0.00 52 1013.6
20260508005704 55 253 0.0 3.5 0.00 0.06 0.00 52 1013.6
20260508005604 55 253 0.0 3.5 0.00 0.06 0.00 52 1013.6
20260508005504 55 253 0.9 3.5 0.00 0.06 0.00 52 1013.6
20260508005404 55 250 0.9 3.5 0.00 0.06 0.00 52 1013.6
20260508005306 55 280 0.0 3.5 0.00 0.06 0.00 51 1013.6
20260508005204 55 280 0.0 6.1 0.00 0.06 0.00 51 1013.6
20260508005104 55 280 0.0 6.1 0.00 0.06 0.00 51 1013.6
20260508005004 55 280 0.9 6.1 0.00 0.06 0.00 51 1013.6
20260508004904 55 214 1.7 6.1 0.00 0.06 0.00 51 1013.6
20260508004804 55 304 0.9 6.1 0.00 0.06 0.00 51 1013.6
20260508004704 55 314 1.7 6.1 0.00 0.06 0.00 51 1013.6
20260508004604 55 274 0.9 6.1 0.00 0.06 0.00 51 1013.6
20260508004504 55 276 0.9 6.1 0.00 0.06 0.00 50 1013.6
20260508004404 55 281 0.0 6.1 0.00 0.06 0.00 50 1013.6
20260508004304 55 269 3.5 6.1 0.00 0.06 0.00 50 1013.6
20260508004204 55 270 2.6 6.1 0.00 0.06 0.00 50 1013.6
20260508004104 55 280 1.7 6.1 0.00 0.06 0.00 50 1013.6
20260508004004 55 270 2.6 6.1 0.00 0.06 0.00 50 1013.6
20260508003904 55 288 2.6 6.1 0.00 0.06 0.00 50 1013.6
20260508003804 55 278 2.6 6.1 0.00 0.06 0.00 50 1013.6
20260508003704 55 276 0.0 6.1 0.00 0.06 0.00 49 1013.6
20260508003604 55 280 0.9 6.1 0.00 0.06 0.00 49 1013.6
20260508003504 55 300 0.9 6.1 0.00 0.06 0.00 50 1013.6
20260508003404 55 252 1.7 6.1 0.00 0.06 0.00 49 1013.6
20260508003304 55 248 1.7 6.1 0.00 0.06 0.00 49 1013.6
20260508003204 55 270 2.6 6.1 0.00 0.06 0.00 49 1013.6
20260508003104 55 228 1.7 6.1 0.00 0.06 0.00 49 1013.6
20260508003005 55 250 4.3 6.1 0.00 0.06 0.00 49 1013.6